This site uses a module created by best online poker sites.

BSB jail roster for December 18, 2017

"12/15/2017","00:10","217CR0032199","T/S","T/S","MT CON RD","",""
"12/15/2017","00:10","217CR0032200","SUSPICIOUS ACTIVITY","SUSPICIOUS ACTIVITY","MT CON","",""
"12/15/2017","00:25","217CR0032201","ANIMAL COMPLAINT","ANIMAL COMPLAINT","189 TRINITY LOOP","",""
"12/15/2017","00:51","217CR0032202","T/S","T/S","MAIN AND ALUMINUM","",""
"12/15/2017","01:02","217CR0032203","SUSPICIOUS ACTIVITY","SUSPICIOUS ACTIVITY","1370 HARRISON","",""
"12/15/2017","01:55","217CR0032204","ASSAULT","ASSAULT","************","",""
"12/15/2017","01:59","217CR0032205","PARKING COMPLAINT","PARKING COMPLAINT","9 W PARK","",""
"12/15/2017","02:33","217CR0032206","SUSPICIOUS ACTIVITY","SUSPICIOUS ACTIVITY","631 S UTAH","",""
"12/15/2017","03:47","217CR0032207","CITIZEN AID","CITIZEN AID","PARK AND MAIN","",""
"12/15/2017","04:18","217CR0032208","UNWANTED PERSON","PROTECTIVE CUSTODY","400 S CLARK","",""
"12/15/2017","04:46","217CR0032209","MEDICAL - EMERGENCY","MEDICAL - EMERGENCY","1726 LOWELL","",""
"12/15/2017","06:49","217CR0032210","STOLEN VEHICLE","MOTOR VEHICLE THEFT","2941 HANSEN RD","",""
"12/15/2017","07:05","217CR0032211","VANDALISM/CRIMINAL MISCHIEF","VANDALISM/CRIMINAL MISCHIEF","225 N ALASKA","",""
"12/15/2017","07:08","217CR0032212","SUSPICIOUS ACTIVITY","SUSPICIOUS ACTIVITY","PARK AND MAIN","",""
"12/15/2017","07:45","217CR0032213","DETENTION BUSINESS","DETENTION BUSINESS","************","",""
"12/15/2017","07:58","217CR0032214","CIVIL PAPER SERVICE","CIVIL PAPER SERVICE","119070 JUNIPER ACREA RD","",""
"12/15/2017","08:00","217CR0032215","ASSIST OTHER AGENCY","ASSIST OTHER AGENCY","246 E MERCURY","",""
"12/15/2017","08:02","217CR0032216","CIVIL PAPER SERVICE","CIVIL PAPER SERVICE","664 TRAVONIA","",""
"12/15/2017","08:06","217CR0032217","WELFARE CHECK","WELFARE CHECK","532 EDISON ST","",""
"12/15/2017","08:21","217CR0032218","CIVIL PAPER SERVICE","CIVIL PAPER SERVICE","116189 BUXTON RD","",""
"12/15/2017","08:21","217CR0032219","CIVIL PAPER SERVICE","CIVIL PAPER SERVICE","412 W MERCURY","",""
"12/15/2017","08:22","217CR0032220","CIVIL PAPER SERVICE","CIVIL PAPER SERVICE","209 S CRYSTAL ST","",""
"12/15/2017","08:34","217CR0032221","CIVIL PAPER SERVICE","CIVIL PAPER SERVICE","111 W BROADWAY","",""
"12/15/2017","08:41","217CR0032222","LED BUSINESS","LED BUSINESS","155 W QUARTZ","",""
"12/15/2017","08:56","217CR0032223","CIVIL PAPER SERVICE","CIVIL PAPER SERVICE","3521 S WARREN","",""
"12/15/2017","08:57","217CR0032224","ALARM - BURGLARY","ALARM - BURGLARY","************","",""
"12/15/2017","09:05","217CR0032225","CIVIL PAPER SERVICE","CIVIL PAPER SERVICE","400 E PARK","",""
"12/15/2017","09:39","217CR0032226","ACCIDENT","ACCIDENT","2521 NETTIE","",""
"12/15/2017","10:05","217CR0032227","THEFT","THEFT","45 THREE BEARS WAY 3 BEARS ALA","",""
"12/15/2017","10:11","217CR0032228","ACCIDENT","ACCIDENT","FARRAGUT AND YALE","",""
"12/15/2017","10:19","217CR0032229","SUSPICIOUS ACTIVITY","SUSPICIOUS ACTIVITY","2132 JOHNS","",""
"12/15/2017","10:19","217CR0032230","THEFT","THEFT","500 S MAIN #B","",""
"12/15/2017","10:58","217CR0032231","PARKING COMPLAINT","PARKING COMPLAINT","1810 MEADOW LARK LANE","",""
"12/15/2017","11:13","217CR0032232","DRUGS","POSSESS DRUG PARAPHERNALIA","401 S WYOMING","ARREST(s) MADE",""
"12/15/2017","12:10","217CR0032234","T/S","T/S","SHIELDS AND TEXAS","",""
"12/15/2017","12:13","217CR0032235","PRIVACY IN COMMUNICATIONS","PRIVACY IN COMMUNICATIONS","************","",""
"12/15/2017","12:19","217CR0032236","CHILD ABUSE","CHILD ABUSE","************","",""
"12/15/2017","13:10","217CR0032237","MEDICAL - EMERGENCY","MEDICAL - EMERGENCY","1305 DRIGGS","",""
"12/15/2017","13:17","217CR0032238","JUVENILE MISC","JUVENILE MISC","************","",""
"12/15/2017","13:32","217CR0032239","MEDICAL - EMERGENCY","MEDICAL - EMERGENCY","155 W GRANITE ST","",""
"12/15/2017","13:40","217CR0032240","JUVENILE MISC","JUVENILE MISC","************","",""
"12/15/2017","13:55","217CR0032241","VEHICLE INSPECTION","VEHICLE INSPECTION","225 N ALASKA","",""
"12/15/2017","13:58","217CR0032242","ALL OTHER","ALL OTHER","MONTANA ST AND SECOND","",""
"12/15/2017","14:14","217CR0032244","THEFT","THEFT, ALL OTHERS","606 ALPINE RD","",""
"12/15/2017","14:15","217CR0032243","THEFT","THEFT","1408 SILVER BOW HOMES","",""
"12/15/2017","14:16","217CR0032246","UNWANTED PERSON","UNWANTED PERSON","************","",""
"12/15/2017","14:17","217CR0032245","ALL OTHER","ALL OTHER","S ROCKER RD AND SANTA CLAUSE","",""
"12/15/2017","14:19","217CR0032247","ALARM - BURGLARY","ALARM - BURGLARY","************","",""
"12/15/2017","14:47","217CR0032248","STOLEN VEHICLE","STOLEN VEHICLE","907 DELAWARE AVE","",""
"12/15/2017","14:48","217CR0032249","INTOXICATED PERSON","INTOXICATED PERSON","1324 HARRISON AVE","",""
"12/15/2017","14:52","217CR0032250","THEFT","THEFT","1301 E SECOND ST","",""
"12/15/2017","14:56","217CR0032251","THEFT","THEFT FROM MOTOR VEHICLE","520 COBBAN ST","ARREST(s) MADE",""
"12/15/2017","15:04","217CR0032252","MEDICAL - EMERGENCY","MEDICAL - EMERGENCY","100 GARDENS WAY APT 118","",""
"12/15/2017","15:18","217CR0032253","VEHICLE INSPECTION","VEHICLE INSPECTION","225 N ALASKA","",""
"12/15/2017","15:38","217CR0032254","TRAFFIC","TRAFFIC","IDAHO ST AND PORPHYRY ST","",""
"12/15/2017","15:39","217CR0032255","DISTURBANCE","CRIMINAL MISCHIEF","2026 S ARIZONA","ARREST(s) MADE",""
"12/15/2017","15:45","217CR0032256","T/S","T/S @ PORPHYRY ST AND MONTANA ST","PORPHYRY ST AND MONTANA ST","",""
"12/15/2017","15:56","217CR0032257","SUSPICIOUS ACTIVITY","SUSPICIOUS ACTIVITY","4820 S UTAH","",""
"12/15/2017","16:03","217CR0032259","ACCIDENT","ACCIDENT","AMHERST ST AND HARRISON AVE","",""
"12/15/2017","16:03","217CR0032258","UNWANTED PERSON","UNWANTED PERSON","************","",""
"12/15/2017","16:13","217CR0032260","TRAFFIC","TRAFFIC","1324 HARRISON","",""
"12/15/2017","16:28","217CR0032261","ALL OTHER","ALL OTHER","910 S MONTANA ST","",""
"12/15/2017","16:34","217CR0032262","SUSPICIOUS ACTIVITY","SUSPICIOUS ACTIVITY","701 DEWEY BLVD","",""
"12/15/2017","16:42","217CR0032263","WELFARE CHECK","WELFARE CHECK","1325 W GRANITE","",""
"12/15/2017","16:42","217CR0032264","WANTED PERSON","CRIMINAL CONTEMPT","GOODWILL STORE 3703 HARRISON","ARREST(s) MADE",""
"12/15/2017","17:07","217CR0032265","T/S","T/S","SHEILDS AND HOWARD","",""
"12/15/2017","17:11","217CR0032266","SUSPICIOUS ACTIVITY","DISORDERLY CONDUCT","60 W GALENA","ARREST(s) MADE",""
"12/15/2017","17:11","217CR0032267","DISTURBANCE","DISORDERLY CONDUCT","509 NORTH ST","",""
"12/15/2017","17:16","217CR0032268","UNWANTED PERSON","UNWANTED PERSON","************","",""
"12/15/2017","17:32","217CR0032269","ALL OTHER","ALL OTHER","1145 TAFT","",""
"12/15/2017","17:54","217CR0032270","ACCIDENT - INJURY","ACCIDENT - INJURY","315 S EXCELSIOR","",""
"12/15/2017","18:08","217CR0032271","LED BUSINESS","LED BUSINESS","155 W QUARTZ","",""
"12/15/2017","18:34","217CR0032272","SUSPICIOUS ACTIVITY","SUSPICIOUS ACTIVITY","225 N ALASKA","",""
"12/15/2017","18:38","217CR0032273","THEFT","THEFT, ALL OTHERS","2940 GOODWIN","",""
"12/15/2017","18:47","217CR0032274","THEFT","THEFT, ALL OTHERS","52 WATHENA DR","",""
"12/15/2017","18:47","217CR0032275","THEFT","THEFT","1503 E LYNDALE LN","",""
"12/15/2017","19:01","217CR0032276","THEFT","THEFT","2500 MASSACHUSETTS AVE","",""
"12/15/2017","19:37","217CR0032277","THEFT","THEFT","2222 WALL ST","",""
"12/15/2017","20:23","217CR0032278","BURGLARY","BURGLARY, RESIDENCE","3945 S ARIZONA","",""
"12/15/2017","20:36","217CR0032279","UNWANTED PERSON","UNWANTED PERSON","************","",""
"12/15/2017","20:43","217CR0032280","ACCIDENT - INJURY","DUI - (REFUSAL)","PAXSON AND LONGFELLOW","ARREST(s) MADE",""
"12/15/2017","21:13","217CR0032281","LED BUSINESS","LED BUSINESS","400 S CLARK","",""
"12/15/2017","21:25","217CR0032282","FIRE - OTHER","FIRE - OTHER","2918 YALE","",""
"12/15/2017","21:36","217CR0032283","MEDICAL - EMERGENCY","MEDICAL - EMERGENCY","1408 SILVERBOW HOMES","",""
"12/15/2017","21:43","217CR0032284","THEFT","THEFT, SHOPLIFT","3901 HARRISON AVE","ARREST(s) MADE",""
"12/15/2017","22:06","217CR0032286","THEFT","THEFT","2955 BUSCH","",""
"12/15/2017","22:09","217CR0032285","ACCIDENT","ACCIDENT","4700 BLOCK HARRISON AVE","",""
"12/15/2017","22:30","217CR0032287","SUSPICIOUS ACTIVITY","SUSPICIOUS ACTIVITY","1125 S MAIN ST","",""
"12/15/2017","22:37","217CR0032288","MEDICAL - EMERGENCY","MEDICAL - EMERGENCY","60 W GALENA","",""
"12/15/2017","22:55","217CR0032289","SUSPICIOUS ACTIVITY","SUSPICIOUS ACTIVITY","8 W FRONT ST","",""
"12/15/2017","23:01","217CR0032290","ACCIDENT","CRIMINAL ENDANGERMENT","HARRISON AND SUNSET","ARREST(s) MADE",""
"12/15/2017","23:10","217CR0032291","T/S","T/S","HARRISON AVE AND DEWEY BLVD","",""
"12/15/2017","23:49","217CR0032292","FIRE- GAS ODOR","FIRE- GAS ODOR","25 AMERICAN DRIVE","",""
"12/15/2017","23:54","217CR0032293","T/S","T/S","DEWEY AND HILL","",""
"12/16/2017","00:00","217CR0032294","MEDICAL - EMERGENCY","MEDICAL - EMERGENCY","1701 SILVERBOW HOMES","",""
"12/16/2017","00:01","217CR0032295","DISTURBANCE","DISTURBANCE","60 E BROADWAY ST/ACOMA","",""
"12/16/2017","00:11","217CR0032296","SUSPICIOUS ACTIVITY","SUSPICIOUS ACTIVITY","633 1/2 S MONTANA","",""
"12/16/2017","00:24","217CR0032297","SUSPICIOUS ACTIVITY","SUSPICIOUS ACTIVITY","100 E BROADWAY ST","",""
"12/16/2017","00:41","217CR0032298","WELFARE CHECK","WELFARE CHECK","GILMAN ST AND HARRISON AVE","",""
"12/16/2017","00:56","217CR0032299","T/S","T/S","","",""
"12/16/2017","00:57","217CR0032300","SUSPICIOUS ACTIVITY","SUSPICIOUS ACTIVITY","DEWEY AND ROWE RD","",""
"12/16/2017","01:26","217CR0032301","SUSPICIOUS ACTIVITY","SUSPICIOUS ACTIVITY","2929 HARRISON AVE","",""
"12/16/2017","01:58","217CR0032302","DISTURBANCE","DISTURBANCE","2 E GALENA","",""
"12/16/2017","02:10","217CR0032303","SUSPICIOUS ACTIVITY","SUSPICIOUS ACTIVITY","1515 OREGON APT 802","",""
"12/16/2017","02:28","217CR0032304","T/S","T/S","HARRISON AND GEORGE","",""
"12/16/2017","02:29","217CR0032305","MEDICAL - EMERGENCY","MEDICAL - EMERGENCY","2520 AMHERST","",""
"12/16/2017","02:54","217CR0032306","WANTED PERSON","WANTED PERSON","************","",""
"12/16/2017","03:00","217CR0032307","SUSPICIOUS ACTIVITY","SUSPICIOUS ACTIVITY","FATHER SHEEHAN PARK","",""
"12/16/2017","03:07","217CR0032308","ALARM - MEDICAL","ALARM - MEDICAL","************","",""
"12/16/2017","03:19","217CR0032309","SUSPICIOUS ACTIVITY","SUSPICIOUS ACTIVITY","2310 COBBAN","",""
"12/16/2017","03:46","217CR0032310","MEDICAL - EMERGENCY","MEDICAL - EMERGENCY","24 E COPPER ST","",""
"12/16/2017","04:12","217CR0032311","MEDICAL - EMERGENCY","MEDICAL - EMERGENCY","1726 LOWELL","",""
"12/16/2017","05:22","217CR0032312","T/S","T/S @ SILVER ST AND EXCELSIOR AVE","SILVER ST AND EXCELSIOR AVE","",""
"12/16/2017","06:00","217CR0032313","MEDICAL - EMERGENCY","MEDICAL - EMERGENCY","25 E GRANITE APT 1 1/2","",""
"12/16/2017","06:24","217CR0032314","SUSPICIOUS ACTIVITY","SUSPICIOUS ACTIVITY","1300 BLK E SECOND","",""
"12/16/2017","06:49","217CR0032315","MEDICAL - EMERGENCY","MEDICAL - EMERGENCY","3940 GLADSTONE AVE","",""
"12/16/2017","06:50","217CR0032316","T/S","T/S","LEXINGTON AND EVANS","",""
"12/16/2017","06:57","217CR0032317","T/S","T/S","GRAND AND GARFIELD","",""
"12/16/2017","07:16","217CR0032318","SUSPICIOUS ACTIVITY","SUSPICIOUS ACTIVITY","40 SPORTSMAN WAY","",""
"12/16/2017","08:06","217CR0032319","THEFT","THEFT, ALL OTHERS","1255 WEST SIDE BLVD","",""
"12/16/2017","08:10","217CR0032320","SUSPICIOUS ACTIVITY","SUSPICIOUS ACTIVITY","GOLD AND MONTANA","",""
"12/16/2017","08:37","217CR0032321","HIT AND RUN","H&R INJ OR DEATH /NON INJ/PROP","300 BLK S ARIZONA","",""
"12/16/2017","08:53","217CR0032322","ATL","DRIVE WHILE SUSP. OR REVOKED","MAIN AND SECOND","ARREST(s) MADE",""
"12/16/2017","09:37","217CR0032323","ACCIDENT","ACCIDENT","225 N ALASKA","",""
"12/16/2017","10:22","217CR0032324","ALARM - BURGLARY","ALARM - BURGLARY","************","",""
"12/16/2017","10:34","217CR0032325","ALARM - BURGLARY","ALARM - BURGLARY","************","",""
"12/16/2017","11:59","217CR0032326","VANDALISM/CRIMINAL MISCHIEF","CRIMINAL MISCHIEF","403 W MERCURY","",""
"12/16/2017","12:09","217CR0032327","WANTED PERSON","CRIMINAL CONTEMPT","155 W QUARTZ","ARREST(s) MADE",""
"12/16/2017","12:12","217CR0032328","SUSPICIOUS ACTIVITY","SUSPICIOUS ACTIVITY","1246 BRITANIA","",""
"12/16/2017","12:18","217CR0032329","DISTURBANCE","DISTURBANCE","6 E SECOND","",""
"12/16/2017","12:41","217CR0032330","DISTURBANCE","DISTURBANCE","400 S CLARK ST","",""
"12/16/2017","12:43","217CR0032331","SUSPICIOUS ACTIVITY","FAILURE TO DISPERSE","301 S ARIZONA ST","ARREST(s) MADE",""
"12/16/2017","12:47","217CR0032332","THEFT","THEFT, ALL OTHERS","60 E BROADWAY","",""
"12/16/2017","12:54","217CR0032333","MEDICAL - EMERGENCY","MEDICAL - EMERGENCY","207 W PARK","",""
"12/16/2017","12:56","217CR0032335","HARASSMENT","HARASSMENT","1606 DEWEY BLVD","",""
"12/16/2017","12:57","217CR0032334","THEFT","THEFT","1504 GILMAN AVE","",""
"12/16/2017","13:13","217CR0032336","UNWANTED PERSON","UNWANTED PERSON","************","",""
"12/16/2017","13:20","217CR0032337","ALARM - BURGLARY","ALARM - BURGLARY","************","",""
"12/16/2017","13:23","217CR0032338","TRAFFIC","TRAFFIC","CLARK AND GALENA","",""
"12/16/2017","13:25","217CR0032339","SUICIDE ATTEMPT/THREAT","SUICIDE ATTEMPT/THREAT","************","",""
"12/16/2017","13:26","217CR0032340","UNWANTED PERSON","UNWANTED PERSON","************","",""
"12/16/2017","13:59","217CR0032341","THEFT","CRIMINAL MISCHIEF","1966 NEVADA","",""
"12/16/2017","14:10","217CR0032342","MEDICAL - EMERGENCY","MEDICAL - EMERGENCY","1443 EASY ST","",""
"12/16/2017","14:19","217CR0032343","THEFT","THEFT OF VEHICLE PARTS/ACCESSO","PLAZA MALL","",""
"12/16/2017","14:54","217CR0032344","ACCIDENT","ACCIDENT","4600 HARRISON STAR LANES","",""
"12/16/2017","15:15","217CR0032345","HIT AND RUN","HIT AND RUN","2303 OTTAWA ST","",""
"12/16/2017","15:20","217CR0032346","MEDICAL - EMERGENCY","MEDICAL - EMERGENCY","3002 MAMMOTH","",""
"12/16/2017","15:23","217CR0032347","ACCIDENT","ACCIDENT","COBBAN AND HARRISON AVE","",""
"12/16/2017","15:43","217CR0032348","ACCIDENT","ACCIDENT","PORTER AND YALE","",""
"12/16/2017","15:43","217CR0032349","ANIMAL COMPLAINT-BITE","ANIMAL COMPLAINT-BITE","3232 PLACER ST","",""
"12/16/2017","15:54","217CR0032350","VANDALISM/CRIMINAL MISCHIEF","CRIMINAL MISCHIEF","ARIZONA AND BROADWAY","",""
"12/16/2017","15:58","217CR0032351","ATL","ATL","3901 HARRISON AVE","",""
"12/16/2017","16:09","217CR0032352","ACCIDENT","ACCIDENT","MAIN AND SUNVIEW TERRACE","",""
"12/16/2017","16:10","217CR0032353","SUSPICIOUS ACTIVITY","SUSPICIOUS ACTIVITY","GRANITE AND HAMILTON","",""
"12/16/2017","16:17","217CR0032354","VANDALISM/CRIMINAL MISCHIEF","VANDALISM/CRIMINAL MISCHIEF","2606 PHILLIPS ST","",""
"12/16/2017","16:45","217CR0032355","MEDICAL - EMERGENCY","MEDICAL - EMERGENCY","2201 GRAND","",""
"12/16/2017","16:50","217CR0032356","MEDICAL - EMERGENCY","MEDICAL - EMERGENCY","1027 1/2 E FRONT ST","",""
"12/16/2017","17:07","217CR0032357","FOUND PROPERTY","FOUND PROPERTY","************","",""
"12/16/2017","17:16","217CR0032358","ASSIST OTHER AGENCY","ASSIST OTHER AGENCY","I90 MM 215 WB","",""
"12/16/2017","17:16","217CR0032359","T/S","T/S","CONTINENTAL AND GREGSON","",""
"12/16/2017","17:28","217CR0032360","T/S","T/S","SHEILDS AND MERCURY","",""
"12/16/2017","17:45","217CR0032361","CRIMINAL TRESPASS","BURGLARY, NON-RESIDENCE","17 S MAIN ST","ARREST(s) MADE",""
"12/16/2017","17:52","217CR0032363","ATL","ATL","1000 BLK W PORPHYRY","",""
"12/16/2017","17:55","217CR0032362","UNKNOWN PROBLEM","UNKNOWN PROBLEM","1003 MARYLAND","",""
"12/16/2017","18:02","217CR0032364","MEDICAL - EMERGENCY","MEDICAL - EMERGENCY","2511 OTTAWA ST","",""
"12/16/2017","20:34","217CR0032365","SEXUAL ASSAULT","SEXUAL ASSAULT","************","",""
"12/16/2017","20:49","217CR0032366","MEDICAL - ASSIST","MEDICAL - ASSIST","************","",""
"12/16/2017","20:54","217CR0032367","CITIZEN AID","CITIZEN AID","COBBAN ST AND TEXAS AVE","",""
"12/16/2017","21:20","217CR0032368","WELFARE CHECK","WELFARE CHECK","2500 MASSACHUSETTS AVE","",""
"12/16/2017","21:33","217CR0032369","MEDICAL - EMERGENCY","MEDICAL - EMERGENCY","907 SILVER BOW HOMES","",""
"12/16/2017","22:09","217CR0032370","FIRE - OTHER","ARSON","700 BLK MARYLAND","",""
"12/16/2017","22:20","217CR0032371","JUVENILE MISC","JUVENILE MISC","************","",""
"12/16/2017","22:25","217CR0032372","UNKNOWN PROBLEM","UNKNOWN PROBLEM","1839 HARRISON","",""
"12/16/2017","22:32","217CR0032373","ASSAULT","ASSAULT","************","",""
"12/16/2017","22:39","217CR0032374","JUVENILE MISC","JUVENILE MISC","************","",""
"12/16/2017","23:18","217CR0032375","T/S","T/S @ THUNDER ALLEY","THUNDER ALLEY","",""
"12/16/2017","23:19","217CR0032376","VANDALISM/CRIMINAL MISCHIEF","VANDALISM/CRIMINAL MISCHIEF","301 S ARIZONA ST","",""
"12/16/2017","23:29","217CR0032377","T/S","T/S @ MONTANA ST AND ALUMINUM ST","MONTANA ST AND ALUMINUM ST","",""
"12/16/2017","23:34","217CR0032378","T/S","T/S @ MONTANA AND PLATINUM","MONTANA AND PLATINUM","",""
"12/16/2017","23:39","217CR0032379","T/S","T/S @ MONTANA ST AND ALUMINUM ST","MONTANA ST AND ALUMINUM ST","",""
"12/17/2017","00:05","217CR0032380","FIRE - OTHER","FIRE - OTHER","727 MARYLAND","",""
"12/17/2017","00:06","217CR0032381","T/S","T/S @ PARK AND MAIN","PARK AND MAIN","",""
"12/17/2017","00:24","217CR0032382","T/S","T/S @ GRAND AND FLORENCE","GRAND AND FLORENCE","",""
"12/17/2017","00:39","217CR0032383","UNWANTED PERSON","UNWANTED PERSON","************","",""
"12/17/2017","00:49","217CR0032384","T/S","DUI PER SE .08 OR GREATER","HILL AVE AND SCHLEY ST","ARREST(s) MADE",""
"12/17/2017","01:10","217CR0032385","DISTURBANCE-NOISE","DISTURBANCE-NOISE","3214 EDWARDS","",""
"12/17/2017","01:18","217CR0032386","SUSPICIOUS ACTIVITY","SUSPICIOUS ACTIVITY","3525 QUINCY ST","",""
"12/17/2017","01:31","217CR0032387","MEDICAL - ASSIST","MEDICAL - ASSIST","************","",""
"12/17/2017","01:46","217CR0032388","SUSPICIOUS ACTIVITY","SUSPICIOUS ACTIVITY","10 BLK E MERCURY ST","",""
"12/17/2017","02:05","217CR0032389","DISTURBANCE","DISTURBANCE","1 W PARK","",""
"12/17/2017","02:07","217CR0032390","ALARM-DURESS","ALARM-DURESS","************","",""
"12/17/2017","03:46","217CR0032391","MEDICAL - EMERGENCY","MEDICAL - EMERGENCY","1626 LOWELL # 3","",""
"12/17/2017","03:52","217CR0032392","ANIMAL COMPLAINT","ANIMAL COMPLAINT","2740 KOSSUTH","",""
"12/17/2017","05:02","217CR0032393","ATL","ATL","2316 PINE","",""
"12/17/2017","06:02","217CR0032394","UNWANTED PERSON","UNWANTED PERSON","************","",""
"12/17/2017","06:09","217CR0032395","MEDICAL - EMERGENCY","MEDICAL - EMERGENCY","1028 S UTAH","",""
"12/17/2017","06:47","217CR0032396","SUSPICIOUS ACTIVITY","SUSPICIOUS ACTIVITY","700 BLK S WYOMING","",""
"12/17/2017","07:43","217CR0032397","DRUGS","DRUGS","************","",""
"12/17/2017","09:18","217CR0032398","UNWANTED PERSON","UNWANTED PERSON","************","",""
"12/17/2017","10:06","217CR0032399","BURGLARY","BURGLARY, RESIDENCE","78 MEADOW GULCH","",""
"12/17/2017","10:35","217CR0032400","ALARM - BURGLARY","ALARM - BURGLARY","************","",""
"12/17/2017","11:15","217CR0032401","ALL OTHER","ALL OTHER","I15 MP 132 SB","",""
"12/17/2017","11:23","217CR0032402","ALARM - BURGLARY","ALARM - BURGLARY","************","",""
"12/17/2017","11:25","217CR0032403","ALARM - BURGLARY","ALARM - BURGLARY","************","",""
"12/17/2017","11:28","217CR0032404","ALARM - BURGLARY","ALARM - BURGLARY","************","",""
"12/17/2017","11:32","217CR0032405","ALL OTHER","ALL OTHER","BUTTE","",""
"12/17/2017","11:37","217CR0032406","ALARM - BURGLARY","ALARM - BURGLARY","************","",""
"12/17/2017","11:39","217CR0032407","MEDICAL - EMERGENCY","MEDICAL - EMERGENCY","212 SILVER BOW HOMES","",""
"12/17/2017","11:44","217CR0032408","HIT AND RUN","HIT AND RUN","2401 CONTINENTAL DR","",""
"12/17/2017","11:49","217CR0032409","WELFARE CHECK","WELFARE CHECK","122 GARDEN WY","",""
"12/17/2017","12:00","217CR0032410","T/S","T/S @ ","","",""
"12/17/2017","12:10","217CR0032411","VANDALISM/CRIMINAL MISCHIEF","VANDALISM/CRIMINAL MISCHIEF","724 MARYLAND","",""
"12/17/2017","12:15","217CR0032412","FIRE - STRUCTURE","FIRE - STRUCTURE","3927 SEVEN SPRINGS","",""
"12/17/2017","12:55","217CR0032413","ALARM - BURGLARY","ALARM - BURGLARY","************","",""
"12/17/2017","13:37","217CR0032414","DETENTION BUSINESS","DETENTION BUSINESS","************","",""
"12/17/2017","13:41","217CR0032415","T/S","T/S","WASHINGTON AND ALUMINUM","",""
"12/17/2017","14:03","217CR0032416","SUSPICIOUS ACTIVITY","SUSPICIOUS ACTIVITY","3001 HARRISON AVE","",""
"12/17/2017","14:05","217CR0032417","DISTURBANCE-NOISE","DISTURBANCE-NOISE","665 S WASHINGTON ST","",""
"12/17/2017","14:06","217CR0032418","DISTURBANCE","DISTURBANCE","1053 S COLORADO","",""
"12/17/2017","14:14","217CR0032419","UNWANTED PERSON","UNWANTED PERSON","************","",""
"12/17/2017","14:36","217CR0032420","THEFT","THEFT, SHOPLIFT","3901 HARRISON AVE","ARREST(s) MADE",""
"12/17/2017","14:37","217CR0032421","ALARM - FIRE","ALARM - FIRE","400 S CLARK","",""
"12/17/2017","15:10","217CR0032423","ALL OTHER","CRIMINAL TRESPASS TO PROPERTY","3901 HARRISON AVE","ARREST(s) MADE",""
"12/17/2017","15:10","217CR0032422","T/S","T/S","SILVER ST AND IDAHO ST","",""
"12/17/2017","15:36","217CR0032424","MEDICAL - EMERGENCY","MEDICAL - EMERGENCY","3033 BUSCH #27","",""
"12/17/2017","15:52","217CR0032425","T/S","CRIMINAL CONTEMPT","GALENA ST AND IDAHO ST","",""
"12/17/2017","16:01","217CR0032426","SUICIDE ATTEMPT/THREAT","SUICIDE ATTEMPT/THREAT","************","",""
"12/17/2017","16:08","217CR0032427","T/S","T/S","PLATINUM AND MONTANA","",""
"12/17/2017","16:17","217CR0032428","UNWANTED PERSON","UNWANTED PERSON","************","",""
"12/17/2017","16:23","217CR0032429","T/S","T/S","GRANITE ST AND EXCELSIOR AVE","",""
"12/17/2017","16:26","217CR0032430","VANDALISM/CRIMINAL MISCHIEF","VANDALISM/CRIMINAL MISCHIEF","1265 FARRELL ST","",""
"12/17/2017","16:28","217CR0032431","WELFARE CHECK","WELFARE CHECK","180 TRINITY LOOP","",""
"12/17/2017","17:01","217CR0032432","CIVIL PAPER SERVICE","CIVIL PAPER SERVICE","2971 TEAL APT #11","",""
"12/17/2017","17:03","217CR0032433","T/S","T/S","GREENWOOD ST AND ROWE RD","",""
"12/17/2017","17:14","217CR0032434","UNWANTED PERSON","UNWANTED PERSON","************","",""
"12/17/2017","17:35","217CR0032435","SUSPICIOUS ACTIVITY","SUSPICIOUS ACTIVITY","BROADWAY AND IDAHO","",""
"12/17/2017","17:35","217CR0032436","T/S","T/S","PLATINUM AND MONTANA","",""
"12/17/2017","17:41","217CR0032437","FIRE - OTHER","FIRE - OTHER","5 E MERCURY ST","",""
"12/17/2017","17:52","217CR0032438","THEFT","THEFT","3901 HARRISON AVE","",""
"12/17/2017","17:58","217CR0032439","UNWANTED PERSON","UNWANTED PERSON","************","",""
"12/17/2017","18:05","217CR0032440","BUSINESS CHECK","BUSINESS CHECK","1370 HARRISON","",""
"12/17/2017","18:12","217CR0032441","ALARM - BURGLARY","ALARM - BURGLARY","************","",""
"12/17/2017","18:32","217CR0032443","DISTURBANCE","DISTURBANCE","207 W PARK ST #26","",""
"12/17/2017","18:32","217CR0032442","T/S","T/S @ CORNELL AND FARRAGUT","CORNELL AND FARRAGUT","",""
"12/17/2017","18:40","217CR0032444","VANDALISM/CRIMINAL MISCHIEF","CRIMINAL MISCHIEF","305 W MERCURY","",""
"12/17/2017","19:01","217CR0032445","ASSIST OTHER AGENCY","ASSIST OTHER AGENCY","","",""
"12/17/2017","19:11","217CR0032446","ASSIST OTHER AGENCY","ASSIST OTHER AGENCY","I90 EB MM 228","",""
"12/17/2017","19:29","217CR0032447","DISTURBANCE","DISTURBANCE","901 S WASHINGTON #33","",""
"12/17/2017","19:48","217CR0032448","ALL OTHER","ALL OTHER","1805 FLORIDA AVE","",""
"12/17/2017","19:52","217CR0032449","VANDALISM/CRIMINAL MISCHIEF","VANDALISM/CRIMINAL MISCHIEF","1406 NORTH B STREET","",""
"12/17/2017","20:07","217CR0032450","MISSING PERSON","MISSING PERSON","************","",""
"12/17/2017","20:32","217CR0032451","UNWANTED PERSON","UNWANTED PERSON","************","",""
"12/17/2017","20:50","217CR0032452","BURGLARY","BURGLARY","1102 S WYOMING","",""
"12/17/2017","20:54","217CR0032453","T/S","T/S @ ","","",""
"12/17/2017","21:00","217CR0032454","ASSIST OTHER AGENCY","ASSIST OTHER AGENCY","I15 MM122 NBND","",""
"12/17/2017","21:01","217CR0032455","SUICIDE ATTEMPT/THREAT","SUICIDE ATTEMPT/THREAT","************","",""
"12/17/2017","21:03","217CR0032456","ASSIST OTHER AGENCY","ASSIST OTHER AGENCY","I90 MM 218 EB","",""
"12/17/2017","21:21","217CR0032457","THEFT","THEFT","1125 S MAIN ST","",""
"12/17/2017","21:23","217CR0032458","CITIZEN AID","CITIZEN AID","350 S MONTANA SUBWAY SANDS","",""
"12/17/2017","21:25","217CR0032459","WELFARE CHECK","WELFARE CHECK","1053 S COLORADO","",""
"12/17/2017","21:26","217CR0032460","UNKNOWN PROBLEM","UNKNOWN PROBLEM","3901 HARRISON AVE","",""
"12/17/2017","21:41","217CR0032461","ALL OTHER","ALL OTHER","222 E PARK","",""
"12/17/2017","23:09","217CR0032462","CIVIL PAPER SERVICE","CIVIL PAPER SERVICE","155 W QUARTZ BSB DETENTION CEN","",""
"12/18/2017","00:10","217CR0032463","PROWLER","PROWLER","734 W PARK","",""
"12/18/2017","00:31","217CR0032464","T/S","DRIVE WHILE SUSP. OR REVOKED","CASEY AND KAW","",""
"12/18/2017","00:39","217CR0032465","T/S","CRIMINAL CONTEMPT","COBBAN AND MONROE","ARREST(s) MADE",""
"12/18/2017","01:29","217CR0032466","PROWLER","PROWLER","1515 OREGON #802","",""
"12/18/2017","01:40","217CR0032467","MAN WITH A GUN","CRIMINAL MISCHIEF","303 W QUARTZ","",""
"12/18/2017","02:06","217CR0032468","THEFT","THEFT, ALL OTHERS","3390 QUICY","",""
"12/18/2017","02:25","217CR0032469","VANDALISM/CRIMINAL MISCHIEF","VANDALISM/CRIMINAL MISCHIEF","921 W BROADWAY","",""
"12/18/2017","02:40","217CR0032470","MEDICAL - EMERGENCY","MEDICAL - EMERGENCY","1522 ELM","",""
"12/18/2017","03:03","217CR0032471","CIVIL PAPER SERVICE","CIVIL PAPER SERVICE","155 W QUARTZ BSB DETENTION CTR","",""
"12/18/2017","03:52","217CR0032472","DISTURBANCE-NOISE","DISTURBANCE-NOISE","305 N WASHINGTON","",""
"12/18/2017","04:28","217CR0032473","DISTURBANCE","DISTURBANCE","307 1/2 N WASHINGTON","",""
"12/18/2017","04:30","217CR0032474","ANIMAL COMPLAINT","ANIMAL COMPLAINT","3519 GAYLORD","",""
"12/18/2017","05:34","217CR0032475","MEDICAL - EMERGENCY","MEDICAL - EMERGENCY","3300 WHARTON","",""
"12/18/2017","06:52","217CR0032476","HIT AND RUN","HIT AND RUN","GRAND AND HARRISON","",""
"12/18/2017","07:00","217CR0032477","SUSPICIOUS ACTIVITY","SUSPICIOUS ACTIVITY","55 E GRANITE ST","",""
"12/18/2017","07:17","217CR0032478","T/S","T/S @ MONTANA ST AND CHULA","MONTANA ST AND CHULA","",""
 

BSB jail roster for December 15, 2017

BOOKED

Prisoner / DOB / SocSec / Agency# Booked Booking# Pod Hold For / Bond Release

 

BERGER, LINDA MARIE 12/15/2017-05:14217AR0002443 MIN/01 PROTECTIVE CUST -

12/15/1967 ********* BSBLEA ON-SITE ARREST (CUSTODY) NONENEEDED 0 Days 0.00

ZZZ-PROCUS PROTECTIVE CUSTODY, MISDEM

KINLEY, TODD MICHAEL 12/14/2017-23:00217AR0002442 H2/01 BUTTE DISTRICT -

03/20/1965 ********* USMC ON-SITE ARREST (CUSTODY) 4700L1702016 1 Days 0.00

45-9-102 POSSESSION OF DANGEROUS DRUGS, FELONY (B)

BELLES, ANGELA MARIE 12/14/2017-22:55217AR0002441 W/H/01 PROTECTIVE CUST -

08/18/1981 ********* BSBLED ON-SITE ARREST (CUSTODY) NONENEEDED 1 Days 0.00

ZZZ-PROCUS PROTECTIVE CUSTODY, MISDEM

WATSON, HAROLD JAMES 12/14/2017-14:35217AR0002440 PC/01 BUTTE CITY COUR -

05/07/1985 ********* BSBLED WARRANT 1 Days 1000.00

45-7-309 CRIMINAL CONTEMPT, MISDEM

TOTAL 4

 

ON HAND

Prisoner / DOB / SocSec / Agency# Booked Booking# Pod Hold For / Bond Release

 

RED STAR, MICHELLE LEE 12/13/2017-14:45217AR0002431 A/08 BLAINE COUNTY -

10/16/1970 ********* WARRANT 4700L1702009 2 Days 0.00

ZZZ-OOJFEL OUT OF JURISDICTION - FELONY, FELONY

VOSS, JEANETTE LYNN 12/12/2017-19:00217AR0002426 H1/01 BUTTE CITY/JUST -

03/27/1985 ********* BSBLED ON-SITE ARREST (CUSTODY) 4700L1702004 3 Days 5337.00

ZZZ-ADDLCHRGE SEE COMMENTS, FELONY

45-10-103 POSSESS DRUG PARAPHERNALIA, MISDEM (C)

61-7-105 FAIL TO ID, SELF AND VEHICLE, MISDEM

61-8-302 CARELESS DRIVING, MISDEM

61-6-302 FAILURE TO SHOW PROOF OF INS, MISDEM

61-5-212 DRIVE WHILE SUSP. OR REVOKED, MISDEM

61-8-401 DUI DRUGS OR ALCOHOL, MISDEM

ZZZ-MHPWAR MONTANA HIGHWAY PATROL WARRANT, MISDEM

SWANSON, LANDON DOUGLAS 12/12/2017-17:30217AR0002424 F/03 BUTTE JUSTICE / -

11/19/1984 ********* ON-SITE ARREST (CUSTODY) 4700L1702001 3 Days ?????????

ZZZ-ADDLCHRGE SEE COMMENTS, FELONY

46-23-507 FAIL TO REGISTER AS OFFENDER, FELONY

BEST, JAMIE MARIE 12/11/2017-20:40217AR0002416 A/07 24/7 VIOLATION -

01/15/1954 ********* BSBLED ON-SITE ARREST (CUSTODY) 4700L1701997 4 Days 0.00

46-9-503 VIOLATION OF RELEASE CONDITION, VIOL

SMITH, JAMIE COLLIN 12/11/2017-11:30217AR0002411 C/09 BUTTE CITY COUR -

07/05/1982 ********* BSBLED ON-SITE ARREST (CUSTODY) 4 Days 2500.00

45-5-206 PFMA - MINOR INJ/PHYSICAL CONT, MISDEM

LILLYBLAD, LENARD RAY 12/10/2017-15:35217AR0002408 C/03 COLORADO -

11/06/1955 ********* OTHER ON-SITE ARREST (CUSTODY) 4700L1701992 5 Days 6000.00

61-5-212 DRIVE WHILE SUSP. OR REVOKED, MISDEM

45-7-309 CRIMINAL CONTEMPT, MISDEM

ZZZ-ADDLCHRGE SEE COMMENTS, FELONY

LARSON, EARL RUSSELL 12/08/2017-15:50217AR0002398 H4/01 DISTRICT- KRUEG -

04/26/1994 ********* BSBLED ON-SITE ARREST (CUSTODY) 4700L1701987 7 Days 50000.00

46-18-203 REVOCATION OF SENTENCE, FELONY

LUBICK, BRIAN MARTIN 12/08/2017-15:45217AR0002399 E/07 KRUEGER/DOC -

04/03/1979 ********* BSBLED WARRANT 4700L1701988 7 Days 25000.00

46-18-203 REVOCATION OF SENTENCE, FELONY

COLEMAN, MORGAN ELIZABETH 12/08/2017-10:21217AR0002396 H1/02 BUTTE JUSTICE-W -

03/15/1977 ********* BSBLED ON-SITE ARREST (CUSTODY) 4700L1702011 7 Days 6000.00

45-7-309 CRIMINAL CONTEMPT, MISDEM

45-10-103 POSSESS DRUG PARAPHERNALIA, MISDEM (C)

45-9-102 POSSESSION OF DANGEROUS DRUGS, MISDEM (B)

45-9-102 POSSESSION OF DANGEROUS DRUGS, FELONY (B)

45-6-203 CRIMINAL TRESPASS TO PROPERTY, MISDEM

JOHNSTON, CHAD JACOB 12/07/2017-17:30217AR0002392 E/02 DOC/KRUEGER -

11/17/1983 ********* DOC WARRANT 4700L1701980 8 Days 20000.00

46-18-203 REVOCATION OF SENTENCE, FELONY

46-9-503 VIOLATION OF RELEASE CONDITION, VIOL

HAMMOND, DANIEL LEVI 12/07/2017-09:30217AR0002386 F/13 MISD. PROBATION -

03/01/1981 ********* BSBLED ON-SITE ARREST (CUSTODY) 8 Days 0.00

46-23-1012 PROBATION VIOLATION, VIOL

45-10-103 POSSESS DRUG PARAPHERNALIA, MISDEM (C)

RICHOTTE, MICHAEL WADE 12/06/2017-17:55217AR0002383 E/08 BUTTE JUSTICE C -

08/20/1989 ********* BSBLED ON-SITE ARREST (CUSTODY) 4700L1701977 9 Days 60000.00

45-10-103 POSSESS DRUG PARAPHERNALIA, MISDEM (C)

45-9-103 POSSESSION WITH INTENT TO SELL, FELONY (A)

45-7-302 OBSTRUCTING A PEACE OFFICER, FELONY (D)

45-8-313 UNLAWFUL POSSESSION OF FIREARM, FELONY

46-23-1012 PROBATION VIOLATION, VIOL (F)

RIOJAS, ANTHONY RYAN 12/06/2017-15:31217AR0002381 B/12 BUTTE CITY/DIST -

09/28/1990 ********* BSBLED WARRANT 4700L1701975 9 Days 0.00

45-7-309 CRIMINAL CONTEMPT, FELONY

45-7-309 CRIMINAL CONTEMPT, MISDEM

EAGLE, TONI DELORES 12/06/2017-03:03217AR0002380 H3/01 BUTTE JUSTICE C -

07/19/1980 ********* BSBLED ON-SITE ARREST (CUSTODY) 4700L1702007 9 Days 10500.00

45-8-101 DISORDERLY CONDUCT, MISDEM (C)

45-10-103 POSSESS DRUG PARAPHERNALIA, MISDEM (C)

45-6-204 BURGLARY, RESIDENCE, FELONY

PENDLEY, BREE ANNE 12/05/2017-12:25217AR0002370 A/19 BUTTE JUSTICE C -

12/05/1979 ********* BSBLED ON-SITE ARREST (CUSTODY) 4700L1701968 10 Days 10000.00

45-9-102 POSSESSION OF DANGEROUS DRUGS, FELONY (B)

45-10-103 POSSESS DRUG PARAPHERNALIA, MISDEM (C)

45-9-102 POSSESSION OF DANGEROUS DRUGS, FELONY (B)

BELTRAN, ANTHONY 12/05/2017-12:25217AR0002371 C/02 BUTTE JUSTICE/M -

08/02/1974 ********* ON-SITE ARREST (CUSTODY) 10 Days 25000.00

46-23-1012 PROBATION VIOLATION, VIOL (F)

ZZZ-OOJFEL OUT OF JURISDICTION - FELONY, FELONY

45-9-206 USE PROPERTY SUBJ TO FORFEITUR, FELONY (C)

45-10-103 POSSESS DRUG PARAPHERNALIA, MISDEM (C)

45-9-103 POSSESSION WITH INTENT TO SELL, FELONY (A)

HETTICK, JACOB JOHN 12/01/2017-16:00217AR0002351 E/01 JUSTICE COURT/ -

05/14/1995 ********* BSBLED ON-SITE ARREST (CUSTODY) 14 Days 10000.00

45-7-207 TAMPERING WITH EVIDENCE, FELONY

46-23-1012 PROBATION VIOLATION, VIOL (F)

MCCUMBERS, EVONNA EVELYN 12/01/2017-11:45217AR0002344 A/06 PASSAGES -ASRC -

11/22/1963 ********* BSBLED ON-SITE ARREST (CUSTODY) 4700C1700336 14 Days 0.00

45-9-102 POSSESSION OF DANGEROUS DRUGS, FELONY (B)

BELL, DUSTIN JAMES 11/29/2017-19:30217AR0002330 F/07 MICHIGAN -

12/10/1983 ********* OTHER WARRANT 4700K1701934 16 Days 0.00

ZZZ-OOJFEL OUT OF JURISDICTION - FELONY, FELONY

45-7-302 OBSTRUCTING A PEACE OFFICER, FELONY (D)

BUSTLE, DAVID JOSEPH 11/29/2017-15:35217AR0002325 MIN/10 BUTTE JUSTICE-K -

01/25/1964 ********* BSBLED ON-SITE ARREST (CUSTODY) 4700K1701931 16 Days 20000.00

45-5-206 PFMA - MINOR INJ/PHYSICAL CONT, FELONY

ALLEN, JOSHUA DAVID 11/29/2017-12:30217AR0002322 F/08 BUTTE DISTRICT -

11/08/1983 ********* DOC ON-SITE ARREST (CUSTODY) 4700K1701928 16 Days 60000.00

46-9-503 VIOLATION OF RELEASE CONDITION, FELONY

45-5-206 PFMA - MINOR INJ/PHYSICAL CONT, MISDEM

46-9-503 VIOLATION OF RELEASE CONDITION, FELONY

45-10-103 POSSESS DRUG PARAPHERNALIA, MISDEM (C)

HANNESSON, JASON LEE 11/29/2017-10:40217AR0002321 F/01 BUTTE DISTRICT11/18/1980

********* DOC WARRANT 16 Days 35000.00

45-7-309 CRIMINAL CONTEMPT, FELONY

GROSSO, SHADOW LEE 11/27/2017-15:30217AR0002310 E/09 BUTTE DISTRICT -

05/12/1993 ********* BSBLED ON-SITE ARREST (CUSTODY) 4700K1701916 18 Days 150000.00

46-9-503 VIOLATION OF RELEASE CONDITION, VIOL

46-9-503 VIOLATION OF RELEASE CONDITION, VIOL

WERNER, ZANE RAYMOND 11/26/2017-05:15217AR0002304 E/16 BUTTE JUSTICE/D -

05/17/1983 ********* BSBLED WARRANT 4700K1701908 19 Days 55500.00

45-7-309 CRIMINAL CONTEMPT, FELONY

45-9-102 POSSESSION OF DANGEROUS DRUGS, FELONY (B)

45-7-301 RESISTING ARREST, MISDEM (C)

45-10-103 POSSESS DRUG PARAPHERNALIA, MISDEM (C)

SPOTTEDBEAR, CARLEEN GAIL 11/24/2017-19:48217AR0002298 A/22 MWP -

10/11/1987 ********* DOC ON-SITE ARREST (CUSTODY) 4700K1701910 21 Days 0.00

46-23-1023 PAROLE VIOLATION, VIOL (F)

CLARK, MICHELLE MARIE 11/22/2017-09:52217AR0002280 A/03 BUTTE DISTRICT05/15/1967

********* BSBDLED WARRANT 4700K1701892 23 Days 10000.00

45-7-309 CRIMINAL CONTEMPT, FELONY

SANDOVAL, BENNY PHILLIP 11/16/2017-19:55217AR0002249 C/01 BUTTE JUSTICE/C -

05/29/1979 ********* BSBLED ON-SITE ARREST (CUSTODY) 4700K1701873 29 Days 100000.00

45-6-101 CRIMINAL MISCHIEF, MISDEM

45-6-204 BURGLARY, RESIDENCE, FELONY

MULLIN, TROY ALLEN 11/16/2017-07:36217AR0002247 MIN/09 BUTTE DISTRICT -

01/26/1983 ********* AO-203467ON-SITE ARREST (CUSTODY) 4700K1701868 29 Days 25000.00

46-23-1012 PROBATION VIOLATION, VIOL (F)

RISHER, TYRONE LEE 11/15/2017-23:40217AR0002246 E/12 BUTTE CITY/JUST -

12/14/1983 ********* BSBLED ON-SITE ARREST (CUSTODY) 30 Days 44000.00

ZZZ-ADDLCHRGE SEE COMMENTS, MISDEM

45-7-309 CRIMINAL CONTEMPT, MISDEM

45-7-302 OBSTRUCTING A PEACE OFFICER, MISDEM (D)

45-6-301 MOTOR VEHICLE THEFT, FELONY (B)

61-8-316 FLEEING FROM/ELUDING POLICE, MISDEM

61-8-301 RECKLESS DRIVING, MISDEM (A)

ZZZ-OOJFEL OUT OF JURISDICTION - FELONY, FELONY

JAEGER, NICHOLAS JOHN 11/13/2017-19:20217AR0002228 F/09 BUTTE DISTRICT03/23/1989

********* BSBLED WARRANT 4700K1701854 32 Days 220000.00

45-7-309 CRIMINAL CONTEMPT, FELONY

ZZZ-MHPWAR MONTANA HIGHWAY PATROL WARRANT, MISDEM

45-5-220 STALKING, MISDEM (C)

45-5-626 VIOLATION OF PROTECTION ORDER, VIOL

MEDINA, FRANK RUEBEN 11/09/2017-18:05217AR0002203 B/02 BUTTE DISTRICT06/27/1980

********* BSBLED WARRANT 4700K1701832 36 Days 13500.00

45-9-102 POSSESSION OF DANGEROUS DRUGS, FELONY (B)

45-10-103 POSSESS DRUG PARAPHERNALIA, MISDEM (C)

45-7-309 CRIMINAL CONTEMPT, MISDEM

45-7-309 CRIMINAL CONTEMPT, MISDEM

45-7-309 CRIMINAL CONTEMPT, FELONY

ENGET, ANDREW STEPHEN 11/09/2017-12:59217AR0002198 MIN/11 BUTTE JUSTICE-W -

09/04/1985 ********* BSBLED ON-SITE ARREST (CUSTODY) 4700K1701828 36 Days 25000.00

45-5-206 PFMA - SERIOUS BODILY INJURY, FELONY

FINNEGAN, AMANDA LEIGH 11/08/2017-18:20217AR0002195 A/10 BUTTE JUSTICE-W -

11/01/1979 ********* BSBLED ON-SITE ARREST (CUSTODY) 4700K1701844 37 Days 15000.00

45-10-103 POSSESS DRUG PARAPHERNALIA, MISDEM (C)

45-9-102 POSSESSION OF DANGEROUS DRUGS, FELONY (B)

45-6-301 THEFT FROM MOTOR VEHICLE, FELONY (B)

61-6-301 NO LIABILITY INSURANCE IN EFF., MISDEM (A)

61-5-212 DRIVE WHILE SUSP. OR REVOKED, MISDEM

45-6-301 MOTOR VEHICLE THEFT, FELONY (B)

45-6-301 BUY/POSSESS STOLEN PROPERTY, FELONY

WANDLER, JOSEPH MICHAEL 11/08/2017-18:03217AR0002193 E/04 BUTTE JUSTICE-W -

07/13/1973 ********* ANACONDAON-SITE ARREST (CUSTODY) 37 Days 10000.00

ZZZ-ADDLCHRGE SEE COMMENTS, FELONY

45-6-301 THEFT FROM MOTOR VEHICLE, FELONY (B)

45-6-301 BUY/POSSESS STOLEN PROPERTY, FELONY

45-6-301 MOTOR VEHICLE THEFT, FELONY (B)

MILLER, JAMES DEAN 11/08/2017-16:32217AR0002192 F/14 BUTTE DISTRICT08/25/1967

********* ON-SITE ARREST (CUSTODY) 4700K1701825 37 Days 25000.00

ZZZ-OOJHOLD OUT OF JURISDICTION HOLD, FELONY

ROMERO, JUAN JOSE 11/07/2017-06:13217AR0002185 F/10 BUTTE DISTRICT10/26/1984

********* DOC ON-SITE ARREST (CUSTODY) 4700K1701821 38 Days 25000.00

46-18-203 REVOCATION OF SENTENCE, MISDEM

SCHNEIDER, NATHAN KEANE 11/06/2017-14:30217AR0002182 E/03 BUTTE JUSTICE-W -

08/23/1977 ********* BSBLED ON-SITE ARREST (CUSTODY) 4700K1701819 39 Days 10000.00

45-6-301 THEFT, ALL OTHERS, FELONY (B)

45-6-204 BURGLARY, NON-RESIDENCE, FELONY

WHITE, DENNIS ALBERT 11/06/2017-12:24217AR0002180 F/02 BUTTE JUSTICE-W -

03/15/1972 ********* BSBLED WARRANT 4700K1701816 39 Days 50000.00

45-5-206 PFMA - MINOR INJ/PHYSICAL CONT, FELONY

ZZZ-ADDLCHRGE SEE COMMENTS, FELONY

45-5-206 PFMA - MINOR INJ/PHYSICAL CONT, MISDEM

RICE, SAMANTHA MARIE 11/03/2017-19:18217AR0002167 A/13 BUTTE JUSTICE C -

03/04/1990 ********* BSBLED ON-SITE ARREST (CUSTODY) 4700K1701803 42 Days 10000.00

45-10-103 POSSESS DRUG PARAPHERNALIA, MISDEM (C)

46-23-1023 PAROLE VIOLATION, VIOL (F)

45-9-102 POSSESSION OF DANGEROUS DRUGS, FELONY (B)

SNOW, KEVIN MARCUS 11/03/2017-12:30217AR0002162 F/11 BUTTE DISTRICT07/21/1979

********* BSBLED WARRANT 4700K1701799 42 Days 75000.00

46-9-503 VIOLATION OF RELEASE CONDITION, VIOL

CANTRELL, JOSEPH WAYNE 10/27/2017-09:48217AR0002116 E/10 DOC & HOLD FOR -

04/03/1993 ********* OTHER ON-SITE ARREST (CUSTODY) 49 Days 0.00

46-18-203 REVOCATION OF SENTENCE, FELONY

BERRINGTON, STEVEN MICHAEL 10/26/2017-12:25217AR0002109 E/14 BUTTE DISTRICT04/26/1966

********* USM ON-SITE ARREST (CUSTODY) NONENEEDED 50 Days 0.00

45-5-213 ASSAULT WITH WEAPON, FELONY

BSB LAW ENFORCEMENT DEPARTMENT

JAIL ROSTER

Printed 12/15/2017-06:07 By 720HOLMSH Page 5

ON HAND (continued...)

Prisoner / DOB / SocSec / Agency# Booked Booking# Pod Hold For / Bond Release

KELLY, MICHAEL DEAN 10/25/2017-13:47217AR0002103 B/04 BUTTE DISTRICT11/30/1961

********* BSBLED ON-SITE ARREST (CUSTODY) NONENEEDED 51 Days 0.00

45-7-309 CRIMINAL CONTEMPT, FELONY

SMITH, ATHENA LYNN 10/25/2017-06:50217AR0002102 A/18 BUTTE JUSTICE-K -

02/02/1987 ********* BSBLED ON-SITE ARREST (CUSTODY) 4700K1701845 51 Days 21000.00

45-6-301 THEFT, SHOPLIFT, MISDEM (B)

45-5-210 ASSAULT PEACE OFFC - NO INJ, FELONY

45-8-101 DISORDERLY CONDUCT, MISDEM (C)

45-7-302 OBSTRUCTING A PEACE OFFICER, MISDEM (D)

45-7-301 RESISTING ARREST, MISDEM (C)

45-6-301 MOTOR VEHICLE THEFT, FELONY (B)

45-6-204 BURGLARY, NON-RESIDENCE, FELONY

CLELAND, CLAYTON LEWIS LAWSON 10/24/2017-05:05217AR0002091 B/03 BUTTE DISTRICT06/22/1981

********* BSBLED WARRANT 4700J1701746 52 Days 21935.00

46-23-1012 PROBATION VIOLATION, VIOL

ZZZ-OOJMISD OUT OF JURISDICTION - MISD, MISDEM

REICH, ROBERT LEE 10/18/2017-18:08217AR0002059 F/12 BUTTE DISTRICT04/30/1986

********* BSBLED ON-SITE ARREST (CUSTODY) 4700J1701725 58 Days 52000.00

45-6-204 AGGRAVATED BURGLARY, FELONY

45-5-206 PFMA - MINOR INJ/PHYSICAL CONT, MISDEM

45-7-308 BAIL JUMPING, FELONY

46-18-203 REVOCATION OF SENTENCE, FELONY

46-9-510 SURRENDER OF DEFENDANT, FELONY

MATTESON, HOWARD JW 10/17/2017-03:49217AR0002050 MIN/14 BUTTE DISTRICT -

09/18/1980 ********* BSBLED ON-SITE ARREST (CUSTODY) 4700J1701716 59 Days 5000.00

45-9-206 USE PROPERTY SUBJ TO FORFEITUR, FELONY (C)

45-9-101 CRIM SALE OF DANGEROUS DRUGS, FELONY (A)

45-10-103 POSSESS DRUG PARAPHERNALIA, MISDEM (C)

45-9-102 POSSESSION OF DANGEROUS DRUGS, FELONY (B)

AMPONSAH, SAMUEL 10/16/2017-17:45217AR0002046 B/09 BUTTE JUSTICE-W -

05/07/1990 ********* BSBLED ON-SITE ARREST (CUSTODY) 60 Days 100000.00

45-6-317 DECEPTIVE PRACT - FINAN GAIN, FELONY

WRIGHT, ANTHONY JOSEPH 10/14/2017-20:28217AR0002034 F/04 BUTTE DISTRICT08/28/1978

********* BSBLED WARRANT 62 Days 50000.00

46-9-503 VIOLATION OF RELEASE CONDITION, FELONY

MAYS, KATRINA MARIE 10/14/2017-12:39217AR0002030 A/09 BUTTE JUSTICE-W -

06/20/1989 ********* BSBLED ON-SITE ARREST (CUSTODY) 4700J1701701 62 Days 10000.00

45-10-103 POSSESS DRUG PARAPHERNALIA, MISDEM (C)

45-9-102 POSSESSION OF DANGEROUS DRUGS, FELONY (B)

46-23-1023 PAROLE VIOLATION, VIOL (F)

LAVERDURE, AMANDA ROSE 10/13/2017-14:38217AR0002027 A/14 BUTTE DISTRICT07/02/1981

********* BSBLED ON-SITE ARREST (CUSTODY) 4700J1701698 63 Days 35000.00

ZZZ-OOJMISD OUT OF JURISDICTION - MISD, MISDEM

45-9-206 USE PROPERTY SUBJ TO FORFEITUR, FELONY (C)

45-9-103 POSSESSION WITH INTENT TO SELL, FELONY (A)

45-9-102 POSSESSION OF DANGEROUS DRUGS, FELONY (B)

45-9-102 POSSESSION OF DANGEROUS DRUGS, FELONY (B)

45-10-103 POSSESS DRUG PARAPHERNALIA, MISDEM (C)

45-7-309 CRIMINAL CONTEMPT, MISDEM

61-3-315 OPERATING W/EXPIRED PLATES, MISDEM

SWEET, LAWRENCE EARL 10/11/2017-16:27217AR0002020 MIN/08 BUTTE DISTRICT12/20/1956

********* BSBLED ON-SITE ARREST (CUSTODY) NOTNEEDED 65 Days 0.00

45-10-103 POSSESS DRUG PARAPHERNALIA, MISDEM (C)

45-9-103 POSSESSION WITH INTENT TO SELL, FELONY (A)

45-9-103 POSSESSION WITH INTENT TO SELL, FELONY (A)

45-7-309 CRIMINAL CONTEMPT, MISDEM

PHILLIPS, TINA MARIE 10/07/2017-22:20217AR0001993 A/01 BUTTE DISTRICT/ -

06/10/1983 ********* BSBLED WARRANT 4700J1701670 69 Days 55000.00

ZZZ-ADDLCHRGE SEE COMMENTS, FELONY

ZZZ-OOJFEL OUT OF JURISDICTION - FELONY, FELONY

ZZZ-OOJFEL OUT OF JURISDICTION - FELONY, FELONY

45-7-309 CRIMINAL CONTEMPT, MISDEM

45-6-301 THEFT, ALL OTHERS, FELONY (B)

NORMAN, TARA JENNETTE 10/05/2017-21:40217AR0001986 A/23 BUTTE DISTRICT/ -

03/05/1993 ********* BSBLED WARRANT 4700J1701663 71 Days 81000.00

ZZZ-OOJFEL OUT OF JURISDICTION - FELONY, FELONY

ZZZ-OOJFEL OUT OF JURISDICTION - FELONY, FELONY

45-7-309 CRIMINAL CONTEMPT, MISDEM

45-7-309 CRIMINAL CONTEMPT, FELONY

CLELAND, RONNIE LEW 09/29/2017-18:00217AR0001945 B/05 BUTTE CITY-GRAN -

10/31/1995 ********* BSBLED ON-SITE ARREST (CUSTODY) 4700I1701162 77 Days 9000.00

46-23-1023 PAROLE VIOLATION, VIOL (F)

61-5-102 DRIVING W/OUT VALID D/L, MISDEM (A)

61-6-301 NO LIABILITY INSURANCE IN EFF., MISDEM (A)

61-3-301 DISPLAY PLTS ASSIGN TO OTHER V, VIOL

61-7-105 FAIL TO ID, SELF AND VEHICLE, MISDEM

61-7-106 HIT AND RUN, UNATTENDED VEHICL, MISDEM

61-7-108 IMMEDIATE NOTIFICATION OF ACC, VIOL

61-8-401 DUI DRUGS OR ALCOHOL, MISDEM

PUENTES, ERIC LEE 09/27/2017-18:55217AR0001932 C/07 BUTTE JUSTICE-D -

09/01/1985 ********* BSBLED ON-SITE ARREST (CUSTODY) 4700I1701617 79 Days 10500.00

45-6-101 CRIMINAL MISCHIEF, FELONY

61-8-316 FLEEING FROM/ELUDING POLICE, MISDEM

61-8-301 RECKLESS DRIVING, MISDEM (A)

61-6-302 FAILURE TO SHOW PROOF OF INS, MISDEM

61-5-212 DRIVE WHILE SUSP. OR REVOKED, MISDEM

45-10-103 POSSESS DRUG PARAPHERNALIA, MISDEM (C)

61-8-401 DUI - (REFUSAL), MISDEM

HOWARD, CHRISTOPHER DAVID 09/26/2017-08:23217AR0001920 E/11 BUTTE DISTRICT06/17/1994

********* BSBLED ON-SITE ARREST (CUSTODY) 4700I1701603 80 Days 35000.00

45-6-101 CRIMINAL MISCHIEF, FELONY

45-6-101 CRIMINAL MISCHIEF, FELONY

61-5-212 DRIVE WHILE SUSP. OR REVOKED, MISDEM

45-5-210 ASSAULT PEACE OFFC - AGG/INJ, FELONY

45-5-213 ASSAULT WITH WEAPON, FELONY

61-8-301B RECKLESS DRIVING WHILE ELUDING, MISDEM

45-6-301 MOTOR VEHICLE THEFT, FELONY (B)

NELSON, SHELLY NICOLE 09/25/2017-15:45217AR0001916 A/12 BUTTE DISTRICT07/21/1976

********* BSBLED WARRANT NONENEEDED 81 Days 0.00

45-9-102 POSSESSION OF DANGEROUS DRUGS, FELONY (B)

ODONNELL, TARA ARLINE 09/20/2017-12:13217AR0001883 MED2/01 BUTTE DISTRICT02/28/1985

********* BSBLED ON-SITE ARREST (CUSTODY) NONENEEDED 86 Days 35000.00

46-18-203 REVOCATION OF SENTENCE, FELONY

MCKINNEY, BERNARD ROY 09/15/2017-09:43217AR0001834 C/05 BUTTE DISTRICT -

03/16/1978 ********* BSBLED WARRANT 4700I1701629 91 Days 50000.00

45-6-204 BURGLARY, NON-RESIDENCE, FELONY

WRIGHT, JOSEPH JAY 09/15/2017-06:25217AR0001855 C/06 BUTTE DISTRICT12/25/1964

********* BSBLED ON-SITE ARREST (CUSTODY) 4700I1701542 91 Days 36000.00

46-18-203 REVOCATION OF SENTENCE, FELONY

46-23-1012 PROBATION VIOLATION, VIOL (F)

45-10-103 POSSESS DRUG PARAPHERNALIA, MISDEM (C)

45-9-102 POSSESSION OF DANGEROUS DRUGS, FELONY (B)

KUNNARY, DANI JO 09/14/2017-12:02217AR0001844 A/15 BUTTE DISTRICT02/23/1994

********* BSBLED WARRANT 4700I1701552 92 Days 10000.00

ZZZ-ADDLCHRGE SEE COMMENTS, MISDEM

46-23-1023 PAROLE VIOLATION, FELONY (F)

45-9-102 POSSESSION OF DANGEROUS DRUGS, FELONY (B)

45-9-102 POSSESSION OF DANGEROUS DRUGS, FELONY (B)

TELLER, ZACHARY LEE 09/14/2017-04:38217AR0001843 B/07 BUTTE DISTRICT -

09/07/1987 ********* BSBLED ON-SITE ARREST (CUSTODY) 4700I1701529 92 Days 22000.00

45-7-309 CRIMINAL CONTEMPT, FELONY

45-7-309 CRIMINAL CONTEMPT, MISDEM

LANDRETH, SPENCER THOMAS 09/12/2017-10:56217AR0001825 E/06 BUTTE DISTRICT07/30/1986

********* BSBLED ON-SITE ARREST (CUSTODY) 4700I1701515 94 Days 10000.00

46-23-1012 PROBATION VIOLATION, VIOL (F)

AMPHY, JAQUE MARKESE 09/09/2017-17:25217AR0001809 D/03 BUTTE DISTRICT07/19/1990

********* BSBLED ON-SITE ARREST (CUSTODY) 97 Days 6100.00

45-7-301 RESISTING ARREST, MISDEM (C)

45-8-101 DISORDERLY CONDUCT, MISDEM (C)

45-5-210 ASSAULT PEACE OFFC - NO INJ, FELONY

BOYD, LONNIE JACKSON 09/01/2017-20:45217AR0001741 C/04 BUTTE DISTRICT07/14/1965

********* BSBLED WARRANT 4700I1701596 105 Days 80000.00

45-5-201 ASSAULT, W/CUTS/BROKEN BONES, MISDEM

45-10-103 POSSESS DRUG PARAPHERNALIA, MISDEM (C)

45-6-301 THEFT, ALL OTHERS, MISDEM (B)

46-9-503 VIOLATION OF RELEASE CONDITION, VIOL

45-9-102 POSSESSION OF DANGEROUS DRUGS, MISDEM (B)

61-8-316 FLEEING FROM/ELUDING POLICE, MISDEM

61-8-301 RECKLESS DRIVING, MISDEM (A)

61-6-301 NO LIABILITY INSURANCE IN EFF., MISDEM (A)

MAY, JARI CHRISTINE 08/31/2017-11:04217AR0001731 A/21 BUTTE DISTRICT11/19/1981

********* BSBLED ON-SITE ARREST (CUSTODY) 4700H1701447 106 Days 90000.00

45-9-206 USE PROPERTY SUBJ TO FORFEITUR, FELONY (C)

46-9-503 VIOLATION OF RELEASE CONDITION, FELONY

45-6-301 THEFT, ALL OTHERS, MISDEM (B)

45-10-103 POSSESS DRUG PARAPHERNALIA, MISDEM (C)

45-9-102 POSSESSION OF DANGEROUS DRUGS, FELONY (B)

45-9-103 POSSESSION WITH INTENT TO SELL, FELONY (A)

LARUE, CASSANDRA ASHLEY 08/29/2017-08:45217AR0001715 A/16 BUTTE DISTRICT10/08/1983

********* BSBLED ON-SITE ARREST (CUSTODY) 4700I1701574 108 Days 35500.00

ZZZ-ADDLCHRGE SEE COMMENTS, FELONY

45-6-301 THEFT, ALL OTHERS, MISDEM (B)

45-6-101 CRIMINAL MISCHIEF, FELONY

45-6-301 THEFT, ALL OTHERS, FELONY (B)

45-6-301 THEFT, ALL OTHERS, FELONY (B)

WILLIAMS, NICHOLAS JARED 08/28/2017-21:15217AR0001711 C/11 BUTTE DISTRICT06/01/1989

********* BSBLED WARRANT 4700H1701428 109 Days 26585.00

46-9-510 SURRENDER OF DEFENDANT, VIOL

45-6-301 THEFT, ALL OTHERS, FELONY (B)

45-6-301 THEFT, ALL OTHERS, FELONY (B)

45-6-301 THEFT, ALL OTHERS, FELONY (B)

45-6-301 THEFT BY EMBEZZLEMENT, FELONY (B)

KOVASH, JONATHON PAUL II 08/23/2017-15:40217AR0001670 E/13 BUTTE DISTRICT -

09/22/1988 ********* BSBLED ON-SITE ARREST (CUSTODY) 4700H1701398 114 Days 25500.00

ZZZ-ADDLCHRGE SEE COMMENTS, MISDEM

45-9-101 CRIM SALE OF DANGEROUS DRUGS, FELONY (A)

46-23-1023 PAROLE VIOLATION, VIOL (F)

45-10-103 POSSESS DRUG PARAPHERNALIA, MISDEM (C)

45-9-102 POSSESSION OF DANGEROUS DRUGS, FELONY (B)

ENGELS, WENDIE ARWEN 08/17/2017-19:09217AR0001634 A/05 BUTTE DISTRICT12/18/1979

********* BSBLED ON-SITE ARREST (CUSTODY) 4700I1701571 120 Days 5000.00

ZZZ-ADDLCHRGE SEE COMMENTS, MISDEM

45-10-103 POSSESS DRUG PARAPHERNALIA, MISDEM (C)

45-6-101 CRIMINAL MISCHIEF, MISDEM

45-5-213 ASSAULT WITH WEAPON, FELONY

STIFF, CHRISTINA RECHELLE 08/16/2017-20:00217AR0001629 A/04 BUTTE DISTRICT11/18/1969

********* BSBLED ON-SITE ARREST (CUSTODY) 4700H1701397 121 Days 10000.00

45-6-204 BURGLARY, NON-RESIDENCE, FELONY

45-10-103 POSSESS DRUG PARAPHERNALIA, MISDEM (C)

45-6-203 CRIMINAL TRESPASS TO PROPERTY, MISDEM

KOLOSKEE, KRISTA ILENE 08/11/2017-15:35217AR0001600 A/11 BUTTE DISTRICT05/13/1978

********* BSBLED ON-SITE ARREST (CUSTODY) 4700H1701342 126 Days 5000.00

ZZZ-ADDLCHRGE SEE COMMENTS, MISDEM

46-23-1023 PAROLE VIOLATION, VIOL (F)

45-9-102 POSSESSION OF DANGEROUS DRUGS, FELONY (B)

45-6-301 THEFT, SHOPLIFT, MISDEM (B)

HOWER, BRIAN BRUCE 08/03/2017-20:15217AR0001556 D/01 BUTTE DISTRICT08/10/1961

********* BSBLED ON-SITE ARREST (CUSTODY) 4700I1701631 134 Days 50000.00

45-5-213 ASSAULT WITH WEAPON, FELONY

45-5-213 ASSAULT WITH WEAPON, FELONY

SMITH, SAM TRAMMELL 08/03/2017-19:07217AR0001555 B/10 BUTTE DISTRICT10/18/1980

********* BSBLED ON-SITE ARREST (CUSTODY) 4700H1701306 134 Days 5500.00

61-6-301 NO LIABILITY INSURANCE IN EFF., MISDEM (A)

61-5-212 DRIVE WHILE SUSP. OR REVOKED, MISDEM

45-10-103 POSSESS DRUG PARAPHERNALIA, MISDEM (C)

45-9-102 POSSESSION OF DANGEROUS DRUGS, FELONY (B)

45-6-301 BUY/POSSESS STOLEN PROPERTY, FELONY

SMITH, JEREMIAH RAYMOND 08/02/2017-03:00217AR0001540 C/12 BUTTE DISTRICT07/15/1990

********* WARRANT 4700H1701294 135 Days 0.00

46-18-203 REVOCATION OF SENTENCE, FELONY

46-18-203 REVOCATION OF SENTENCE, FELONY

RODRIGUEZ, MATTHEW JOSEPH 07/28/2017-19:38217AR0001501 MIN/05 BUTTE DISTRICT07/22/1986

********* BSBLED ON-SITE ARREST (CUSTODY) 4700G1701263 140 Days 100000.00

45-5-503 SIWOC, FELONY

ZZZ-OOJHOLD OUT OF JURISDICTION HOLD, VIOL

COCKING, EDWARD WILLIAM 07/24/2017-04:42217AR0001464 MIN/07 BUTTE DISTRICT07/10/1991

********* BSBLED ON-SITE ARREST (CUSTODY) 4700G1701227 144 Days 50000.00

45-10-103 POSSESS DRUG PARAPHERNALIA, MISDEM (C)

46-23-1012 PROBATION VIOLATION, VIOL

SNEERINGER, STEPHEN 07/20/2017-20:37217AR0001442 B/06 BUTTE DISTRICT05/14/1975

********* BSBLED ON-SITE ARREST (CUSTODY) 4700I1701630 148 Days 75500.00

45-10-103 POSSESS DRUG PARAPHERNALIA, MISDEM (C)

45-9-102 POSSESSION OF DANGEROUS DRUGS, FELONY (B)

45-9-206 USE PROPERTY SUBJ TO FORFEITUR, FELONY (C)

45-9-103 POSSESSION WITH INTENT TO SELL, FELONY (A)

45-7-301 RESISTING ARREST, MISDEM (C)

46-23-1023 PAROLE VIOLATION, FELONY (F)

ASHTON, JAY GEOFFREY ROBERT 07/20/2017-02:00217AR0001439 MIN/04 BUTTE DISTRICT06/30/1991

********* BSBLED ON-SITE ARREST (CUSTODY) 4700G1701204 148 Days 253000.00

ZZZ-ADDLCHRGE SEE COMMENTS, FELONY

ZZZ-ADDLCHRGE SEE COMMENTS, FELONY

45-6-204 BURGLARY, NON-RESIDENCE, FELONY

JOHNSON, AUSTIN BLAIR 07/12/2017-21:30217AR0001379 MIN/01 BUTTE DISTRICT07/10/1990

********* BSBLED ON-SITE ARREST (CUSTODY) 4700G1701146 156 Days 0.00

45-5-212 ASSAULT ON MINOR, FELONY

WILSON, MICHAEL DONOVEN 06/26/2017-18:10217AR0001262 MIN/06 BUTTE DISTRICT06/19/1975

********* BSBLED ON-SITE ARREST (CUSTODY) 4700F1701046 172 Days 50000.00

45-7-309 CRIMINAL CONTEMPT, MISDEM

45-7-309 CRIMINAL CONTEMPT, MISDEM

45-5-507 INCEST, FELONY

GILLIN, JOSEPH WILLIAM 06/20/2017-16:27217AR0001220 F/16 BUTTE DISTRICT07/08/1974

********* BSBLED WARRANT 4700I1701633 178 Days 50000.00

46-18-203 REVOCATION OF SENTENCE, FELONY

BERG, KHIANA NICOLE 06/16/2017-14:30217AR0001197 MED1/01 BUTTE DISTRICT07/06/1995

********* BSBLED WARRANT 4700F1700989 182 Days 25000.00

ZZZ-ADDLCHRGE SEE COMMENTS, FELONY

ZZZ-OOJFEL OUT OF JURISDICTION - FELONY, FELONY

GULBRO, JESSE LEE 06/14/2017-19:07217AR0001186 B/11 BUTTE DISTRICT03/23/1978

********* BSBLED ON-SITE ARREST (CUSTODY) 4700F1700980 184 Days 50000.00

45-7-309 CRIMINAL CONTEMPT, MISDEM

45-5-201 ASSAULT, SIMPLE, MISDEM

45-5-213 ASSAULT WITH WEAPON, FELONY

DEUTSCH, THOMAS PAUL SR 06/05/2017-15:30217AR0001123 MIN/13 BUTTE JUSTICE-W -

08/19/1956 ********* BSBLED ON-SITE ARREST (CUSTODY) 4700F1700927 193 Days 25000.00

45-5-401 ROBBERY, FELONY

45-5-213 ASSAULT WITH WEAPON, FELONY

ALEXANDER, TOBY JAMES 06/02/2017-03:27217AR0001095 C/10 BUTTE DISTRICT07/27/1987

********* BSBLED WARRANT 4700G1701189 196 Days 127000.00

45-7-309 CRIMINAL CONTEMPT, MISDEM

45-7-309 CRIMINAL CONTEMPT, FELONY

45-7-309 CRIMINAL CONTEMPT, FELONY

45-7-301 RESISTING ARREST, MISDEM (C)

45-7-303 OBSTRUCTING JUSTICE, MISDEM (D)

CRUMP, THOMAS GREGORY 04/23/2017-05:50217AR0000820 B/01 BUTTE DISTRICT10/03/1972

********* BSBLED ON-SITE ARREST (CUSTODY) 4700D1700679 236 Days 30000.00

ZZZ-ADDLCHRGE SEE COMMENTS, FELONY

45-6-204 BURGLARY, NON-RESIDENCE, FELONY

KELLEDY, SEAN MICHAEL 04/19/2017-13:28217AR0000795 E/15 BUTTE DISTRICT10/30/1972

********* BSBLED ON-SITE ARREST (CUSTODY) 4700G1701207 240 Days 50000.00

46-9-510 SURRENDER OF DEFENDANT, MISDEM

ZZZ-OOJMISD OUT OF JURISDICTION - MISD, MISDEM

ZZZ-OOJFEL OUT OF JURISDICTION - FELONY, FELONY

52-3-811 ELDER ABUSE, MISDEM

SHEA, PATRICK WILLIAM 03/29/2017-16:15217AR0000624 MIN/03 BUTTE DISTRICT12/04/1955

********* BSBLED ON-SITE ARREST (CUSTODY) 4700C1700533 261 Days 75000.00

45-5-625 SEXUAL ABUSE OF CHILDREN, FELONY

ZAGRANIS, JOHN LAWRENCE JR 03/21/2017-17:36217AR0000568 D/04 BUTTE DISTRICT10/02/1983

********* BSBLED ON-SITE ARREST (CUSTODY) 4700C1700491 269 Days 30000.00

ZZZ-ADDLCHRGE SEE COMMENTS, MISDEM

45-5-210 ASSAULT ON PEACE OFFICER, FELONY

45-5-206 PFMA - MINOR INJ/PHYSICAL CONT, FELONY

45-7-301 RESISTING ARREST, MISDEM (C)

45-5-210 ASSAULT PEACE OFFC - AGG/INJ, FELONY

AMMERMANN, TRAVIS BAYRON 03/20/2017-17:19217AR0000559 C/08 BUTTE DISTRICT08/01/1979

********* BSBLED WARRANT 4700C1700468 270 Days 0.00

45-7-309 CRIMINAL CONTEMPT, FELONY

MARRY, JEREMIAH BURTON JAMES 03/19/2017-21:00217AR0000556 B/08 BUTTE DISTRICT11/10/1985

********* BSBLED ON-SITE ARREST (CUSTODY) 4700G1701209 271 Days 31000.00

ZZZ-ADDLCHRGE SEE COMMENTS, FELONY

45-7-302 OBSTRUCTING A PEACE OFFICER, MISDEM (D)

45-9-102 POSSESSION OF DANGEROUS DRUGS, FELONY (B)

45-7-301 RESISTING ARREST, MISDEM (C)

45-7-302 OBSTRUCTING A PEACE OFFICER, MISDEM (D)

ZZZ-ADDLCHRGE SEE COMMENTS, FELONY

SPROLES, CLINTON TODD 02/26/2017-00:20217AR0000379 F/15 BUTTE DISTRICT07/13/1962

********* BSBLED ON-SITE ARREST (CUSTODY) 4700B1700303 292 Days 0.00

61-5-212 DRIVE WHILE SUSP. OR REVOKED, MISDEM

46-23-1023 PAROLE VIOLATION, VIOL (F)

61-8-401 DUI - (REFUSAL), FELONY

MILLER, HAROLD JAMES JR 02/24/2017-18:30217AR0000368 MIN/02 MISSOULA / BUTT -

07/20/1947 ********* BSBLED ON-SITE ARREST (CUSTODY) 4700B1700294 294 Days 71500.00

ZZZ-OOJMISD OUT OF JURISDICTION - MISD, MISDEM

ZZZ-OOJMISD OUT OF JURISDICTION - MISD, MISDEM

ZZZ-OOJMISD OUT OF JURISDICTION - MISD, MISDEM

45-6-301 BUY/POSSESS STOLEN PROPERTY, FELONY

ZZZ-OOJFEL OUT OF JURISDICTION - FELONY, FELONY

JOHNSON, RONALD ALLAN 02/23/2017-21:20217AR0000364 E/05 BUTTE DISTRICT07/21/1952

********* BSBLED WARRANT 4700B1700289 295 Days 0.00

46-9-503 VIOLATION OF RELEASE CONDITION, FELONY

ZZZ-ADDLCHRGE SEE COMMENTS, FELONY

ZZZ-ADDLCHRGE SEE COMMENTS, FELONY

BENNETT, CONRAD MICHAEL 01/08/2017-04:08217AR0000053 D/02 BUTTE DISTRICT05/07/1971

********* BSBLED ON-SITE ARREST (CUSTODY) 4700A1700041 341 Days 0.00

45-5-213 ASSAULT WITH WEAPON, FELONY

SCHLEPP, STEVEN PAUL 07/07/2016-16:50216AR0001366 MIN/12 BUTTE DISTRICT10/22/1974

********* BSBLED ON-SITE ARREST (CUSTODY) 4700G1601120 526 Days 40000.00

45-5-625 SEXUAL ABUSE OF CHILDREN, FELONY

45-5-503 SIWOC, FELONY

TOTAL 98

 

RELEASED

Prisoner / DOB / SocSec / Agency# Booked Booking# Pod Hold For / Bond Release

 

CUNNINGHAM, WINDI LAURIE 12/14/2017-13:14217AR0002439 A/17 BUTTE CITY COUR 12/14/2017-15:37

08/21/1967 ********* BSBLED ON-SITE ARREST (CUSTODY) 4700L1702015 0 Days 1085.00 12/14/2017

45-6-301 BUY/POSSESS STOLEN PROPERTY, MISDEM

STRYKER, JASON LEROY 12/14/2017-12:30217AR0002438 H2/01 BUTTE CITY 12/14/2017-14:42

11/30/1969 ********* OTHER ON-SITE ARREST (CUSTODY) 4700L1702014 0 Days 1085.00 12/14/2017

45-6-301 BUY/POSSESS STOLEN PROPERTY, MISDEM

LEE, KAYLA MARIE 12/14/2017-11:56217AR0002436 H2/01 BUTTE CITY 12/14/2017-12:37

08/29/1991 ********* BSBLED WARRANT 0 Days 590.00 12/14/2017

45-7-309 CRIMINAL CONTEMPT, MISDEM

BENNETT, HEIDI LYNN 12/14/2017-08:45217AR0002435 A/17 BUTTE CITY COUR 12/14/2017-09:06

09/04/1978 ********* BSBLED WARRANT 0 Days 12/14/2017

45-7-309 CRIMINAL CONTEMPT, MISDEM

WORLEY, RONALD PATRICK 12/13/2017-15:30217AR0002434 H2/02 BUTTE CITY COUR 12/14/2017-12:08

06/29/1966 ********* ON-SITE ARREST (CUSTODY) 4700L1702010 1 Days 0.00 12/14/2017

45-7-309 CRIMINAL CONTEMPT, MISDEM

LATRAY, CASSANDRA LEANN 12/01/2017-00:24217AR0002342 A/01 BUTTE DISTRICT 12/14/2017-16:56

07/04/1991 ********* BSBLED WARRANT 4700L1701945 13 Days 0.00 12/14/2017

45-7-309 CRIMINAL CONTEMPT, FELONY

BURNS, CHRISTOPHER RYAN 11/30/2017-09:10217AR0002335 MIN/15 TENNESSEE 12/14/2017-00:25

08/26/1986 ********* BSBLED WARRANT 4700K1701939 14 Days 285.00 12/14/2017

61-6-301 NO LIABILITY INSURANCE IN EFF., MISDEM (A)

46-23-507 FAIL TO REGISTER AS OFFENDER, FELONY

46-23-507 FAIL TO REGISTER AS OFFENDER, FELONY

46-23-507 FAIL TO REGISTER AS OFFENDER, FELONY

46-23-507 FAIL TO REGISTER AS OFFENDER, FELONY

46-23-507 FAIL TO REGISTER AS OFFENDER, FELONY

SKARTVED, BRITTANY PAMELA 11/29/2017-18:58217AR0002329 A/01 BUTTE DISTRICT- 12/14/2017-15:08

09/05/1989 ********* BSBLED WARRANT 4700K1701933 15 Days 0.00 12/14/2017

45-7-309 CRIMINAL CONTEMPT, FELONY

PARR, DEBBIE LEEANNE 11/29/2017-08:45217AR0002320 A/02 BUTTE DISTRICT 12/14/2017-17:19

05/28/1982 ********* BSBLED WARRANT 4700K1701924 15 Days 0.00 12/14/2017

46-9-503 VIOLATION OF RELEASE CONDITION, FELONY

TOTAL 9

BSB police report ending December 15, 2017

"12/14/2017","00:44","217CR0032124","ACCIDENT","ACCIDENT","I90 MM 228 EB","",""
"12/14/2017","00:52","217CR0032125","SUSPICIOUS ACTIVITY","SUSPICIOUS ACTIVITY","2000 DEWEY BLVD DOTTYS CASINO","",""
"12/14/2017","01:15","217CR0032126","DISTURBANCE-NOISE","DISTURBANCE-NOISE","630 W GRANITE","",""
"12/14/2017","01:15","217CR0032127","MEDICAL - EMERGENCY","MEDICAL - EMERGENCY","1308 GRIZZLY TRAIL","",""
"12/14/2017","01:19","217CR0032128","OPEN BUILDING","OPEN BUILDING","1407 HARRISON MT AFFORDABLE 4X","",""
"12/14/2017","01:20","217CR0032129","SUSPICIOUS ACTIVITY","SUSPICIOUS ACTIVITY","1407 HARRISON AVE","",""
"12/14/2017","01:32","217CR0032130","T/S","T/S","MONTANA ST AND ALUMINUM ST","",""
"12/14/2017","01:45","217CR0032131","BURGLARY","BURGLARY","1021 1/2 E FRONT","",""
"12/14/2017","01:58","217CR0032132","DISTURBANCE","DISTURBANCE","1117 W PARK","",""
"12/14/2017","02:02","217CR0032133","DISTURBANCE","DISTURBANCE","531 S MONTANA TOWN PUMP","",""
"12/14/2017","02:10","217CR0032134","DISTURBANCE","POSSESS DRUG PARAPHERNALIA","414 S MONTANA #14","",""
"12/14/2017","02:45","217CR0032135","MEDICAL - EMERGENCY","MEDICAL - EMERGENCY","1932 FLORENCE","",""
"12/14/2017","03:21","217CR0032136","SUSPICIOUS ACTIVITY","SUSPICIOUS ACTIVITY","1736 LONGFELLOW","",""
"12/14/2017","03:53","217CR0032137","DISTURBANCE","DISTURBANCE","220 N WYOMING MOTEL 6","",""
"12/14/2017","05:41","217CR0032138","T/S","DRIVE WHILE SUSP. OR REVOKED","1960 HARRISON AVE TACO JOHNS","",""
"12/14/2017","06:35","217CR0032139","TRAFFIC HAZARD","TRAFFIC HAZARD","115 S PARKMONT","",""
"12/14/2017","06:39","217CR0032140","TRAFFIC","TRAFFIC","1000 GRIZZLY TRAIL","",""
"12/14/2017","06:41","217CR0032141","MEDICAL - EMERGENCY","MEDICAL - EMERGENCY","1000 GRIZZLY TRAIL","",""
"12/14/2017","06:57","217CR0032142","CITIZEN AID","CITIZEN AID","3650 ALBANY","",""
"12/14/2017","07:19","217CR0032143","HARASSMENT","HARASSMENT","207 S EXCELSIOR","",""
"12/14/2017","07:48","217CR0032144","HARASSMENT","HARASSMENT","520 W PARK","",""
"12/14/2017","07:51","217CR0032145","CIVIL PAPER SERVICE","CIVIL PAPER SERVICE","1931 GRAND","",""
"12/14/2017","08:04","217CR0032146","T/S","CRIMINAL CONTEMPT","1700 BLK FLORENCE","ARREST(s) MADE",""
"12/14/2017","08:20","217CR0032147","LED BUSINESS","LED BUSINESS","155 W QUARTZ","",""
"12/14/2017","09:36","217CR0032148","CIVIL PAPER SERVICE","CIVIL PAPER SERVICE","1960 HARRISON AVE","",""
"12/14/2017","09:51","217CR0032149","SUICIDE ATTEMPT/THREAT","SUICIDE ATTEMPT/THREAT","************","",""
"12/14/2017","10:11","217CR0032150","THEFT","THEFT, ALL OTHERS","201 HOBSON #40","ARREST(s) MADE",""
"12/14/2017","10:19","217CR0032151","MEDICAL - EMERGENCY","MEDICAL - EMERGENCY","728 S COLORADO","",""
"12/14/2017","10:27","217CR0032152","ALARM - BURGLARY","ALARM - BURGLARY","************","",""
"12/14/2017","10:31","217CR0032153","LED BUSINESS","LED BUSINESS","BSB GUN RANGE","",""
"12/14/2017","10:41","217CR0032154","WELFARE CHECK","WELFARE CHECK","900 N EXCELSIOR","",""
"12/14/2017","10:41","217CR0032155","ASSIST OTHER AGENCY","CRIMINAL CONTEMPT","1927 HARVARD","ARREST(s) MADE",""
"12/14/2017","10:53","217CR0032156","UNWANTED PERSON","UNWANTED PERSON","************","",""
"12/14/2017","11:51","217CR0032157","DISTURBANCE","DISTURBANCE","628 W GRANITE","",""
"12/14/2017","12:59","217CR0032158","HARASSMENT","HARASSMENT","2031 GAYLORD","",""
"12/14/2017","13:05","217CR0032159","SUSPICIOUS ACTIVITY","SUSPICIOUS ACTIVITY","1304 HARRISON AVE","",""
"12/14/2017","13:27","217CR0032160","DETENTION BUSINESS","DETENTION BUSINESS","************","",""
"12/14/2017","13:31","217CR0032161","DISTURBANCE","DISTURBANCE","1914 MASSACHUSETTS","",""
"12/14/2017","13:41","217CR0032162","ATL","ATL","I 90 MM 211 E BND","",""
"12/14/2017","13:47","217CR0032163","FIRE - OTHER","IMMEDIATE NOTIFICATION OF ACC","HOBSON AND ROWE RD","",""
"12/14/2017","13:51","217CR0032164","SUSPICIOUS ACTIVITY","SUSPICIOUS ACTIVITY","1925 GARLAND","",""
"12/14/2017","13:55","217CR0032165","DETENTION BUSINESS","DETENTION BUSINESS","************","",""
"12/14/2017","13:56","217CR0032166","CITIZEN AID","CRIMINAL CONTEMPT","206 W PARK","ARREST(s) MADE",""
"12/14/2017","13:56","217CR0032167","WELFARE CHECK","WELFARE CHECK","1129 ATLANTIC","",""
"12/14/2017","14:03","217CR0032168","CITIZEN AID","CITIZEN AID","3400 HILL AVE #1105","",""
"12/14/2017","14:15","217CR0032169","ACCIDENT","ACCIDENT","WYNNE AVE AND GILMAN ST","",""
"12/14/2017","14:19","217CR0032170","JUVENILE MISC","JUVENILE MISC","************","",""
"12/14/2017","14:46","217CR0032171","ASSAULT","ASSAULT","************","",""
"12/14/2017","14:46","217CR0032172","CIVIL STANDBY","CIVIL STANDBY","2130 GAYLORD ST","",""
"12/14/2017","14:47","217CR0032173","ALL OTHER","ALL OTHER","3001 HARRISON AVE","",""
"12/14/2017","14:59","217CR0032174","WELFARE CHECK","WELFARE CHECK","715 13TH ST","",""
"12/14/2017","15:06","217CR0032175","FRAUD","FRAUD","2300 HARRISON AVE","",""
"12/14/2017","15:10","217CR0032176","MEDICAL - EMERGENCY","MEDICAL - EMERGENCY","3002 MAMMOTH","",""
"12/14/2017","15:43","217CR0032177","WELFARE CHECK","WELFARE CHECK","105 TRINITY LOOP","",""
"12/14/2017","15:55","217CR0032178","HIT AND RUN","HIT AND RUN, UNATTENDED VEHICL","310 W FRONT","",""
"12/14/2017","16:03","217CR0032179","ATL","ATL","1600 BLK SCHLEY","",""
"12/14/2017","16:08","217CR0032180","UNWANTED PERSON","UNWANTED PERSON","************","",""
"12/14/2017","16:16","217CR0032181","DISTURBANCE","PFMA - MINOR INJ/PHYSICAL CONT","1953 WHITMAN AVE","",""
"12/14/2017","16:18","217CR0032182","DISTURBANCE","ASSAULT WITH WEAPON","1515 OREGON AVE APT 102","",""
"12/14/2017","16:26","217CR0032183","STOLEN VEHICLE","MOTOR VEHICLE THEFT","3801 HARRISON BUTTE CHEVROLET","",""
"12/14/2017","16:38","217CR0032184","ALL OTHER","ALL OTHER","106 W BROADWAY","",""
"12/14/2017","16:52","217CR0032185","THEFT","THEFT, SHOPLIFT","3901 HARRISON AVE","",""
"12/14/2017","17:15","217CR0032186","THEFT","THEFT, SHOPLIFT","3901 HARRISON AVE","",""
"12/14/2017","17:17","217CR0032187","MEDICAL - EMERGENCY","MEDICAL - EMERGENCY","2201 GRAND AVE","",""
"12/14/2017","18:23","217CR0032188","ACCIDENT","ACCIDENT","3900 BLOCK HARRISON AVE","",""
"12/14/2017","18:37","217CR0032189","THEFT","THEFT","1342 SAGE","",""
"12/14/2017","20:11","217CR0032190","SUICIDE ATTEMPT/THREAT","SEXUAL ASSAULT","************","",""
"12/14/2017","20:48","217CR0032191","CITIZEN AID","CITIZEN AID","2825 FARRAGUT #D107","",""
"12/14/2017","21:31","217CR0032192","ALL OTHER","ALL OTHER","WYOMING AND BROADWAY","",""
"12/14/2017","21:35","217CR0032193","DISTURBANCE","DISTURBANCE","410 W MERCURY","",""
"12/14/2017","22:14","217CR0032194","WELFARE CHECK","WELFARE CHECK","400 S CLARK","",""
"12/14/2017","22:37","217CR0032195","AP&P BUSINESS","POSSESSION OF DANGEROUS DRUGS","20 W GALENA GOLD RUSH","ARREST(s) MADE",""
"12/14/2017","22:50","217CR0032196","W/PRISONER","W/PRISONER","","",""
"12/14/2017","23:11","217CR0032197","T/S","T/S @ MAIN AND PORPHYRY","MAIN AND PORPHYRY","",""
"12/14/2017","23:13","217CR0032198","ANIMAL COMPLAINT","ANIMAL COMPLAINT","MONTANA // I15 SB MM 126","",""
"12/15/2017","00:10","217CR0032200","SUSPICIOUS ACTIVITY","SUSPICIOUS ACTIVITY","MT CON","",""
"12/15/2017","00:10","217CR0032199","T/S","T/S @ MT CON RD","MT CON RD","",""
"12/15/2017","00:25","217CR0032201","ANIMAL COMPLAINT","ANIMAL COMPLAINT","189 TRINITY LOOP","",""
"12/15/2017","00:51","217CR0032202","T/S","T/S","MAIN AND ALUMINUM","",""
"12/15/2017","01:02","217CR0032203","SUSPICIOUS ACTIVITY","SUSPICIOUS ACTIVITY","1370 HARRISON","",""
"12/15/2017","01:55","217CR0032204","ASSAULT","ASSAULT","************","",""
"12/15/2017","01:59","217CR0032205","PARKING COMPLAINT","PARKING COMPLAINT","9 W PARK","",""
"12/15/2017","02:33","217CR0032206","SUSPICIOUS ACTIVITY","SUSPICIOUS ACTIVITY","631 S UTAH","",""
"12/15/2017","03:47","217CR0032207","CITIZEN AID","CITIZEN AID","PARK AND MAIN","",""
"12/15/2017","04:18","217CR0032208","UNWANTED PERSON","PROTECTIVE CUSTODY","400 S CLARK","",""
"12/15/2017","04:46","217CR0032209","MEDICAL - EMERGENCY","MEDICAL - EMERGENCY","1726 LOWELL","",""
"12/15/2017","06:49","217CR0032210","STOLEN VEHICLE","MOTOR VEHICLE THEFT","2941 HANSEN RD","",""
"12/15/2017","07:05","217CR0032211","VANDALISM/CRIMINAL MISCHIEF","VANDALISM/CRIMINAL MISCHIEF","225 N ALASKA","",""
"12/15/2017","07:08","217CR0032212","SUSPICIOUS ACTIVITY","SUSPICIOUS ACTIVITY","PARK AND MAIN","",""
"12/15/2017","07:58","217CR0032214","CIVIL PAPER SERVICE","CIVIL PAPER SERVICE","119070 JUNIPER ACREA RD","",""
"12/15/2017","08:02","217CR0032216","CIVIL PAPER SERVICE","CIVIL PAPER SERVICE","664 TRAVONIA","",""
"12/15/2017","08:06","217CR0032217","WELFARE CHECK","WELFARE CHECK","532 EDISON ST","",""
 

BSB police report ending December 14, 2017

"12/13/2017","00:54","217CR0032041","T/S","T/S","YALE AND PINION","",""
"12/13/2017","00:56","217CR0032042","T/S","T/S","PAXSON ST AND LONGFELLOW ST","",""
"12/13/2017","01:14","217CR0032043","SUSPICIOUS ACTIVITY","SUSPICIOUS ACTIVITY","1400 BLK HARRISON","",""
"12/13/2017","01:28","217CR0032044","T/S","T/S","1375 HARRISON","",""
"12/13/2017","01:29","217CR0032045","BUSINESS CHECK","BUSINESS CHECK","531 S MONTANA TOWN PUMP","",""
"12/13/2017","02:34","217CR0032046","T/S","T/S","SECOND AND MAIN","",""
"12/13/2017","02:34","217CR0032047","T/S","T/S","","",""
"12/13/2017","03:26","217CR0032048","SUSPICIOUS ACTIVITY","CRIMINAL MISCHIEF","401 S WYOMING","",""
"12/13/2017","03:39","217CR0032049","UNWANTED PERSON","UNWANTED PERSON","************","",""
"12/13/2017","03:52","217CR0032050","SUSPICIOUS ACTIVITY","SUSPICIOUS ACTIVITY","1801 FARRAGUT AVE","",""
"12/13/2017","03:56","217CR0032051","SUSPICIOUS ACTIVITY","SUSPICIOUS ACTIVITY","MAIN ST AT LEXINGTON MINE","",""
"12/13/2017","06:20","217CR0032052","T/S","T/S","MONTANA ST AND IRON","",""
"12/13/2017","06:56","217CR0032053","TRAFFIC HAZARD","TRAFFIC HAZARD","1300 BLK HARRISON AVE","",""
"12/13/2017","08:22","217CR0032054","DISTURBANCE","DISTURBANCE","910 EVANS AVE APT F9","",""
"12/13/2017","08:24","217CR0032055","TRAFFIC HAZARD","TRAFFIC HAZARD","1300 BLK OF S MONTANA ST","",""
"12/13/2017","08:36","217CR0032056","CIVIL PAPER SERVICE","CIVIL PAPER SERVICE","519 W GALENA","",""
"12/13/2017","08:50","217CR0032057","CIVIL PAPER SERVICE","CIVIL PAPER SERVICE","910 EVANS APT F9","",""
"12/13/2017","09:22","217CR0032058","STOLEN VEHICLE","MOTOR VEHICLE THEFT","8750 HWY 2","",""
"12/13/2017","09:48","217CR0032059","ASSIST OTHER AGENCY","POSSESS DRUG PARAPHERNALIA","678 S DAKOTA","ARREST(s) MADE",""
"12/13/2017","09:49","217CR0032060","JUVENILE RUNAWAY","JUVENILE RUNAWAY","************","",""
"12/13/2017","10:01","217CR0032061","ALARM - BURGLARY","ALARM - BURGLARY","************","",""
"12/13/2017","10:04","217CR0032062","ACCIDENT-MHP","ACCIDENT-MHP","I 90 MM 229 W BND","",""
"12/13/2017","10:06","217CR0032063","SUSPICIOUS ACTIVITY","SUSPICIOUS ACTIVITY","400 BLK S MAIN ST","",""
"12/13/2017","10:11","217CR0032064","SUSPICIOUS ACTIVITY","SUSPICIOUS ACTIVITY","2711 HARRISON AVE","",""
"12/13/2017","10:22","217CR0032065","DRUGS","POSSESSION WITH INTENT TO SELL","401 S WYOMING","ARREST(s) MADE",""
"12/13/2017","10:35","217CR0032066","HARASSMENT","HARASSMENT","1905 SHERMAN","",""
"12/13/2017","10:46","217CR0032067","CIVIL PAPER SERVICE","CIVIL PAPER SERVICE","675 S MAIN","",""
"12/13/2017","11:26","217CR0032068","DETENTION BUSINESS","DETENTION BUSINESS","************","",""
"12/13/2017","11:36","217CR0032069","VANDALISM/CRIMINAL MISCHIEF","VANDALISM/CRIMINAL MISCHIEF","2210 OTTAWA","",""
"12/13/2017","11:44","217CR0032070","T/S","T/S","","",""
"12/13/2017","11:58","217CR0032071","CIVIL PAPER SERVICE","CIVIL PAPER SERVICE","2762 S MONTANA","",""
"12/13/2017","12:09","217CR0032072","ASSIST OTHER AGENCY","ASSIST OTHER AGENCY","712 E FRONT ST","",""
"12/13/2017","12:14","217CR0032073","ACCIDENT","ACCIDENT","MONTANA AND PORPHYRY","",""
"12/13/2017","12:17","217CR0032074","DISTURBANCE","DISTURBANCE","246 E MERCURY","",""
"12/13/2017","12:24","217CR0032075","SUICIDE ATTEMPT/THREAT","SUICIDE ATTEMPT/THREAT","************","",""
"12/13/2017","12:28","217CR0032076","DISTURBANCE","DISTURBANCE","1736 LONGFELLOW #8","",""
"12/13/2017","12:31","217CR0032077","FIRE- GAS ODOR","FIRE- GAS ODOR","2027 CALIFORNIA","",""
"12/13/2017","12:33","217CR0032078","THEFT","THEFT, ALL OTHERS","3447 HANNIBAL","",""
"12/13/2017","12:35","217CR0032079","ATL","ATL","MAIN AND PLATINUM","",""
"12/13/2017","12:37","217CR0032080","ACCIDENT-MHP","ACCIDENT-MHP","HIGHWAY 2 // NINE MILE","",""
"12/13/2017","12:46","217CR0032081","ACCIDENT","ACCIDENT","LASALLE AND MONTANA","",""
"12/13/2017","12:49","217CR0032082","THEFT","THEFT, ALL OTHERS","1913 STUART","",""
"12/13/2017","12:51","217CR0032083","ASSIST OTHER AGENCY","ASSIST OTHER AGENCY","I90 231 EB","",""
"12/13/2017","13:01","217CR0032084","CITIZEN AID","CITIZEN AID","1415 SAGE ST","",""
"12/13/2017","13:11","217CR0032085","ACCIDENT","ACCIDENT","I15 EXIT 127 B","",""
"12/13/2017","13:23","217CR0032086","CIVIL PAPER SERVICE","CIVIL PAPER SERVICE","68 W BROADWAY","",""
"12/13/2017","13:37","217CR0032087","LED BUSINESS","LED BUSINESS","","",""
"12/13/2017","13:55","217CR0032088","ALARM - BURGLARY","ALARM - BURGLARY","************","",""
"12/13/2017","13:58","217CR0032089","FIRE - OTHER","FIRE - OTHER","3525 QUINCY ST","",""
"12/13/2017","14:07","217CR0032090","LOST OR STOLEN PROPERTY","LOST OR STOLEN PROPERTY","","",""
"12/13/2017","14:12","217CR0032091","WANTED PERSON","WANTED PERSON","************","",""
"12/13/2017","14:19","217CR0032092","THEFT","THEFT, ALL OTHERS","1512 S WARREN AVE","",""
"12/13/2017","14:41","217CR0032093","UNWANTED PERSON","UNWANTED PERSON","************","",""
"12/13/2017","15:11","217CR0032094","T/S","T/S","HARRISON AVE AND CLEVLAND ST","",""
"12/13/2017","15:15","217CR0032095","T/S","OPERATING WITHOUT CURRENT REGI","GRAND AVE AND FARRAGUT ST","",""
"12/13/2017","15:21","217CR0032096","SUSPICIOUS ACTIVITY","SUSPICIOUS ACTIVITY","1300 DEWEY","",""
"12/13/2017","15:22","217CR0032097","WANTED PERSON","CRIMINAL CONTEMPT","HARRISON AND SAMPSON","ARREST(s) MADE",""
"12/13/2017","16:17","217CR0032098","ACCIDENT","ACCIDENT","SILVER ST AND IDAHO ST","",""
"12/13/2017","16:46","217CR0032099","T/S","T/S","DEWEY AND OREGON","",""
"12/13/2017","17:07","217CR0032100","UNWANTED PERSON","UNWANTED PERSON","************","",""
"12/13/2017","17:12","217CR0032101","ACCIDENT","ACCIDENT","GALENA ST AND MONTANA ST","",""
"12/13/2017","17:15","217CR0032102","JUVENILE MISC","JUVENILE MISC","************","",""
"12/13/2017","17:17","217CR0032103","HIT AND RUN","HIT AND RUN","WASHINGTON ST AND PLATINUM ST","",""
"12/13/2017","17:23","217CR0032104","ALARM - FIRE","ALARM - FIRE","65 E BROADWAY ST","",""
"12/13/2017","17:31","217CR0032105","WELFARE CHECK","WELFARE CHECK","2916 QUINCY","",""
"12/13/2017","17:37","217CR0032106","CRIMINAL TRESPASS","CRIMINAL TRESPASS","1200 W ALUMINUM","",""
"12/13/2017","17:40","217CR0032107","ALL OTHER","ALL OTHER","CONTINENTAL DR AND HANNIBAL ST","",""
"12/13/2017","18:15","217CR0032108","ACCIDENT - INJURY","ACCIDENT - INJURY","GRAND AND HARRISON","",""
"12/13/2017","18:17","217CR0032109","DISTURBANCE","DISTURBANCE","910 EVANS APT D7","",""
"12/13/2017","18:35","217CR0032110","T/S","T/S","FLORENCE ST AND COBBAN ST","",""
"12/13/2017","18:46","217CR0032111","ALL OTHER","ALL OTHER","2777 HARRISON AVE ROOM 325","",""
"12/13/2017","19:32","217CR0032112","DISTURBANCE","DISTURBANCE","814 S COLORADO ST","",""
"12/13/2017","19:50","217CR0032113","ALL OTHER","ALL OTHER","3400 HILL APT #1308","",""
"12/13/2017","19:57","217CR0032114","MEDICAL - EMERGENCY","MEDICAL - EMERGENCY","1631 SAMPSON ST","",""
"12/13/2017","20:03","217CR0032115","SUSPICIOUS ACTIVITY","SUSPICIOUS ACTIVITY","1927 HARVARD","",""
"12/13/2017","20:55","217CR0032116","ALARM - BURGLARY","ALARM - BURGLARY","************","",""
"12/13/2017","21:40","217CR0032117","MEDICAL - EMERGENCY","MEDICAL - EMERGENCY","628 1/2 W GRANITE","",""
"12/13/2017","22:41","217CR0032118","T/S","T/S @ TEXAS AVE AND GEORGE ST","TEXAS AVE AND GEORGE ST","",""
"12/13/2017","22:45","217CR0032119","MEDICAL - EMERGENCY","MEDICAL - EMERGENCY","2700 HARRISON/ DAYS INN","",""
"12/13/2017","23:03","217CR0032120","HARASSMENT","HARASSMENT","2225 ARGYLE","",""
"12/13/2017","23:27","217CR0032121","ATL","ATL","3001 HARRISON MCDONALDS","",""
"12/13/2017","23:36","217CR0032122","T/S","DISPLAY PLTS ASSIGN TO OTHER V","3900 BLK PAXSON","",""
"12/13/2017","23:51","217CR0032123","T/S","T/S","LEXINGTON AND DEWEY","",""
"12/14/2017","00:44","217CR0032124","ACCIDENT","ACCIDENT","I90 MM 228 EB","",""
"12/14/2017","00:52","217CR0032125","SUSPICIOUS ACTIVITY","SUSPICIOUS ACTIVITY","2000 DEWEY BLVD DOTTYS CASINO","",""
"12/14/2017","01:15","217CR0032126","DISTURBANCE-NOISE","DISTURBANCE-NOISE","630 W GRANITE","",""
"12/14/2017","01:15","217CR0032127","MEDICAL - EMERGENCY","MEDICAL - EMERGENCY","1308 GRIZZLY TRAIL","",""
"12/14/2017","01:19","217CR0032128","OPEN BUILDING","OPEN BUILDING","1407 HARRISON MT AFFORDABLE 4X","",""
"12/14/2017","01:20","217CR0032129","SUSPICIOUS ACTIVITY","SUSPICIOUS ACTIVITY","1407 HARRISON AVE","",""
"12/14/2017","01:32","217CR0032130","T/S","T/S","MONTANA ST AND ALUMINUM ST","",""
"12/14/2017","01:45","217CR0032131","BURGLARY","BURGLARY","1021 1/2 E FRONT","",""
"12/14/2017","01:58","217CR0032132","DISTURBANCE","DISTURBANCE","1117 W PARK","",""
"12/14/2017","02:02","217CR0032133","DISTURBANCE","DISTURBANCE","531 S MONTANA TOWN PUMP","",""
"12/14/2017","02:10","217CR0032134","DISTURBANCE","POSSESS DRUG PARAPHERNALIA","414 S MONTANA #14","",""
"12/14/2017","02:45","217CR0032135","MEDICAL - EMERGENCY","MEDICAL - EMERGENCY","1932 FLORENCE","",""
"12/14/2017","03:21","217CR0032136","SUSPICIOUS ACTIVITY","SUSPICIOUS ACTIVITY","1736 LONGFELLOW","",""
"12/14/2017","03:53","217CR0032137","DISTURBANCE","DISTURBANCE","220 N WYOMING MOTEL 6","",""
"12/14/2017","05:41","217CR0032138","T/S","T/S @ 1960 HARRISON AVE TACO JOHNS","1960 HARRISON AVE TACO JOHNS","",""
"12/14/2017","06:35","217CR0032139","TRAFFIC HAZARD","TRAFFIC HAZARD","115 S PARKMONT","",""
"12/14/2017","06:39","217CR0032140","TRAFFIC","TRAFFIC","1000 GRIZZLY TRAIL","",""
"12/14/2017","06:41","217CR0032141","MEDICAL - EMERGENCY","MEDICAL - EMERGENCY","1000 GRIZZLY TRAIL","",""
"12/14/2017","06:57","217CR0032142","CITIZEN AID","CITIZEN AID","3650 ALBANY","",""
"12/14/2017","07:19","217CR0032143","HARASSMENT","HARASSMENT","207 S EXCELSIOR","",""
"12/14/2017","07:48","217CR0032144","HARASSMENT","HARASSMENT","520 W PARK","",""
"12/14/2017","07:51","217CR0032145","CIVIL PAPER SERVICE","CIVIL PAPER SERVICE","1931 GRAND","",""
 

BSB police report ending December 13, 2017

"12/12/2017","00:46","217CR0031945","ALL OTHER","AGGRAVATED DUI","ROWE RD AND CLINTON","ARREST(s) MADE",""
"12/12/2017","01:37","217CR0031946","SUSPICIOUS ACTIVITY","SUSPICIOUS ACTIVITY","FRONT AND UTAH","",""
"12/12/2017","02:47","217CR0031947","ALARM - BURGLARY","ALARM - BURGLARY","************","",""
"12/12/2017","03:34","217CR0031948","DISTURBANCE","DISTURBANCE","817 S WASHINGTON","",""
"12/12/2017","05:03","217CR0031949","MEDICAL - EMERGENCY","MEDICAL - EMERGENCY","FLYING J 122000 BROWNS GLCH RD","",""
"12/12/2017","05:34","217CR0031950","SUSPICIOUS ACTIVITY","SUSPICIOUS ACTIVITY","2100 CORNELL QUALITY INN","",""
"12/12/2017","05:45","217CR0031951","SUSPICIOUS ACTIVITY","SUSPICIOUS ACTIVITY","HOLIDAY WY AND CORNELL","",""
"12/12/2017","06:04","217CR0031952","T/S","T/S @ STUART AND PINE","STUART AND PINE","",""
"12/12/2017","06:07","217CR0031953","SUICIDE ATTEMPT/THREAT","SUICIDE ATTEMPT/THREAT","************","",""
"12/12/2017","07:30","217CR0031954","MEDICAL - EMERGENCY","MEDICAL - EMERGENCY","2900 HARRISON AVE","",""
"12/12/2017","08:09","217CR0031955","ALARM - BURGLARY","ALARM - BURGLARY","************","",""
"12/12/2017","08:14","217CR0031956","T/S","T/S","HARRISON AND HOLMES","",""
"12/12/2017","08:14","217CR0031957","FIRE- GAS ODOR","FIRE- GAS ODOR","304 N MAIN","",""
"12/12/2017","08:24","217CR0031958","CITIZEN AID","CITIZEN AID","246 E MERCURY ST","",""
"12/12/2017","08:31","217CR0031959","ATL","ATL","HARRISON AND GILMAN","",""
"12/12/2017","08:31","217CR0031960","CIVIL PAPER SERVICE","CIVIL PAPER SERVICE","2208 CAROLINA","",""
"12/12/2017","08:38","217CR0031961","ALARM - BURGLARY","ALARM - BURGLARY","************","",""
"12/12/2017","09:03","217CR0031962","ABANDONED VEHICLE","ABANDONED VEHICLE","734 W PARK","",""
"12/12/2017","09:04","217CR0031963","CIVIL PAPER SERVICE","CIVIL PAPER SERVICE","425 W SILVER","",""
"12/12/2017","09:04","217CR0031964","CIVIL PAPER SERVICE","CIVIL PAPER SERVICE","509 NORTH ST","",""
"12/12/2017","09:12","217CR0031965","FOUND PROPERTY","FOUND PROPERTY","************","",""
"12/12/2017","09:20","217CR0031966","DETENTION BUSINESS","DETENTION BUSINESS","************","",""
"12/12/2017","09:43","217CR0031967","JUVENILE MISC","JUVENILE MISC","************","",""
"12/12/2017","09:44","217CR0031968","SUSPICIOUS ACTIVITY","SUSPICIOUS ACTIVITY","2210 OTTAWA","",""
"12/12/2017","10:08","217CR0031969","T/S","T/S","1300 BLK STUART","",""
"12/12/2017","10:24","217CR0031970","T/S","T/S","GRAND AND CONTINENTAL","",""
"12/12/2017","10:38","217CR0031971","JUVENILE MISC","POSSESSION OF TOBACCO PRODUCTS","401 S WYOMING ST","",""
"12/12/2017","10:40","217CR0031972","T/S","T/S","600 BLK S MAIN ST","",""
"12/12/2017","10:45","217CR0031973","T/S","OPERATING WITHOUT CURRENT REGI","GRANITE AND MAIN","",""
"12/12/2017","10:51","217CR0031975","MEDICAL - EMERGENCY","MEDICAL - EMERGENCY","804 S ARIZONA","",""
"12/12/2017","11:03","217CR0031976","WELFARE CHECK","WELFARE CHECK","737 W PARK #5","",""
"12/12/2017","11:24","217CR0031979","DETENTION BUSINESS","DETENTION BUSINESS","************","",""
"12/12/2017","11:47","217CR0031980","MEDICAL - EMERGENCY","MEDICAL - EMERGENCY","100 GARDENS WAY #122","",""
"12/12/2017","11:54","217CR0031981","THEFT","THEFT FROM MOTOR VEHICLE","1301 W PARK ST","",""
"12/12/2017","11:55","217CR0031982","TRAFFIC HAZARD","TRAFFIC HAZARD","WHITMAN AND MAJORS","",""
"12/12/2017","12:12","217CR0031983","LED BUSINESS","LED BUSINESS","MAJORS ST AND WHITMAN ST","",""
"12/12/2017","12:13","217CR0031984","MEDICAL - EMERGENCY","MEDICAL - EMERGENCY","2900 ELM ST","",""
"12/12/2017","12:28","217CR0031985","MEDICAL - EMERGENCY","MEDICAL - EMERGENCY","245 SADDLE HORN DRIVE","",""
"12/12/2017","12:35","217CR0031986","LED BUSINESS","LED BUSINESS","25 E GRANITE #404","",""
"12/12/2017","12:42","217CR0031987","CIVIL PAPER SERVICE","CIVIL PAPER SERVICE","226 W SILVER ST #3","",""
"12/12/2017","12:48","217CR0031988","CIVIL PAPER SERVICE","CIVIL PAPER SERVICE","675 S MAIN APT A","",""
"12/12/2017","12:56","217CR0031989","CIVIL PAPER SERVICE","CIVIL PAPER SERVICE","421 W IRON ST","",""
"12/12/2017","13:01","217CR0031990","DRUGS","DRUGS","************","",""
"12/12/2017","13:18","217CR0031991","T/S","T/S","HOWARD AND GRAND","",""
"12/12/2017","13:21","217CR0031992","ALARM - BURGLARY","ALARM - BURGLARY","************","",""
"12/12/2017","13:44","217CR0031994","ALARM - FIRE","ALARM - FIRE","24 E COPPER","",""
"12/12/2017","13:46","217CR0031995","T/S","T/S","HARRISON AND GEORGE","",""
"12/12/2017","13:47","217CR0031996","T/S","T/S @ GEORGE AND ARGYLE","GEORGE AND ARGYLE","",""
"12/12/2017","13:59","217CR0031997","DRUGS","POSSESSION OF DANGEROUS DRUGS","1001 N EMMETT","ARREST(s) MADE",""
"12/12/2017","14:02","217CR0031998","T/S","T/S","AMHERST AND DAHLGREN","",""
"12/12/2017","14:16","217CR0031999","T/S","T/S","MAIN ST AND GRANITE ST","",""
"12/12/2017","14:25","217CR0032000","SUSPICIOUS ACTIVITY","SUSPICIOUS ACTIVITY","BEHIND BIG M","",""
"12/12/2017","14:28","217CR0032001","SUSPICIOUS ACTIVITY","SUSPICIOUS ACTIVITY","2210 OTTAWA","",""
"12/12/2017","14:36","217CR0032002","T/S","T/S @ OREGON AVE AND B ST","OREGON AVE AND B ST","",""
"12/12/2017","14:38","217CR0032003","ACCIDENT","ACCIDENT","FRONT ST AND UTAH AVE","",""
"12/12/2017","14:41","217CR0032004","ASSIST OTHER AGENCY","ASSIST OTHER AGENCY","225 N ALASKA","",""
"12/12/2017","14:56","217CR0032006","THEFT","THEFT OF VEHICLE PARTS/ACCESSO","3801 HARRISON","",""
"12/12/2017","14:58","217CR0032005","FRAUD","FRAUD","225 N ALASKA","",""
"12/12/2017","15:08","217CR0032007","THEFT","THEFT","225 N ALASKA ST","",""
"12/12/2017","15:21","217CR0032008","FIRE - VEHICLE","FIRE - VEHICLE","500 BLK N MAIN","",""
"12/12/2017","15:29","217CR0032009","FIRE- GAS ODOR","FIRE- GAS ODOR","1110 W PARK","",""
"12/12/2017","15:39","217CR0032010","HARASSMENT","HARASSMENT","909 W QUARTZ","",""
"12/12/2017","15:44","217CR0032011","ALL OTHER","ALL OTHER","5100 WARREN TLR 21","",""
"12/12/2017","16:03","217CR0032012","UNWANTED PERSON","UNWANTED PERSON","************","",""
"12/12/2017","16:09","217CR0032013","ACCIDENT","ACCIDENT","HOLLAND AND MONTANA","",""
"12/12/2017","16:12","217CR0032014","THEFT","THEFT FROM BUILDINGS","BUTTE SUBARU 3801 HARRISON AVE","",""
"12/12/2017","17:00","217CR0032016","ACCIDENT","POSSESSION OF DANGEROUS DRUGS","1125 S MAIN ST","ARREST(s) MADE",""
"12/12/2017","17:08","217CR0032017","SUSPICIOUS ACTIVITY","SUSPICIOUS ACTIVITY","2611 HARRISON AVE WALGREENS","",""
"12/12/2017","18:04","217CR0032018","ALARM - BURGLARY","ALARM - BURGLARY","************","",""
"12/12/2017","18:10","217CR0032019","T/S","DRIVE WHILE SUSP. OR REVOKED","ROOSEVELT AND HARRISON","ARREST(s) MADE",""
"12/12/2017","18:12","217CR0032020","MEDICAL - ASSIST","MEDICAL - ASSIST","************","",""
"12/12/2017","18:15","217CR0032021","BUSINESS CHECK","BUSINESS CHECK","2000 DEWEY","",""
"12/12/2017","18:28","217CR0032022","ALL OTHER","ALL OTHER","3080 HECLA","",""
"12/12/2017","18:47","217CR0032023","THEFT","THEFT","3939 HARRISON","",""
"12/12/2017","18:52","217CR0032024","WELFARE CHECK","WELFARE CHECK","201 HOBSON #9","",""
"12/12/2017","19:04","217CR0032025","MEDICAL - EMERGENCY","MEDICAL - EMERGENCY","3016 PAXSON AVE","",""
"12/12/2017","19:07","217CR0032026","T/S","T/S @ BUSCH ST AND GARLAND","BUSCH ST AND GARLAND","",""
"12/12/2017","19:08","217CR0032027","MEDICAL - ASSIST","MEDICAL - ASSIST","************","",""
"12/12/2017","19:23","217CR0032028","DISTURBANCE","DISTURBANCE","706 W GALENA","",""
"12/12/2017","19:26","217CR0032029","UNWANTED PERSON","UNWANTED PERSON","************","",""
"12/12/2017","19:33","217CR0032030","VANDALISM/CRIMINAL MISCHIEF","VANDALISM/CRIMINAL MISCHIEF","1731 S WARREN AVE","",""
"12/12/2017","19:47","217CR0032031","SUSPICIOUS ACTIVITY","SUSPICIOUS ACTIVITY","846 S MAIN","",""
"12/12/2017","21:56","217CR0032032","T/S","T/S","MAIN AND PORPHYRY","",""
"12/12/2017","22:15","217CR0032033","SUSPICIOUS ACTIVITY","SUSPICIOUS ACTIVITY","2210 OTTAWA","",""
"12/12/2017","22:36","217CR0032034","T/S","T/S @ MONTANA AND FRONT ST","MONTANA AND FRONT ST","",""
"12/12/2017","22:48","217CR0032035","T/S","T/S","GRAND AND THOMAS","",""
"12/12/2017","22:57","217CR0032036","T/S","T/S","HARRISON AND OTTAWA","",""
"12/12/2017","22:59","217CR0032037","THEFT","THEFT","1801 PRINCETON","",""
"12/12/2017","23:35","217CR0032038","T/S","POSSESS DRUG PARAPHERNALIA","ELIZABETH WARREN AND PAXSON","ARREST(s) MADE",""
"12/12/2017","23:50","217CR0032039","UNWANTED PERSON","UNWANTED PERSON","************","",""
"12/12/2017","23:58","217CR0032040","ATL","ATL","SAFEWAY/2500 MASS","",""
"12/13/2017","00:54","217CR0032041","T/S","T/S @ YALE AND PINION","YALE AND PINION","",""
"12/13/2017","00:56","217CR0032042","T/S","T/S","PAXSON ST AND LONGFELLOW ST","",""
"12/13/2017","01:14","217CR0032043","SUSPICIOUS ACTIVITY","SUSPICIOUS ACTIVITY","1400 BLK HARRISON","",""
"12/13/2017","01:28","217CR0032044","T/S","T/S","1375 HARRISON","",""
"12/13/2017","01:29","217CR0032045","BUSINESS CHECK","BUSINESS CHECK","531 S MONTANA TOWN PUMP","",""
"12/13/2017","02:34","217CR0032046","T/S","T/S @ SECOND AND MAIN","SECOND AND MAIN","",""
"12/13/2017","02:34","217CR0032047","T/S","T/S","","",""
"12/13/2017","03:26","217CR0032048","SUSPICIOUS ACTIVITY","SUSPICIOUS ACTIVITY","401 S WYOMING","",""
"12/13/2017","03:39","217CR0032049","UNWANTED PERSON","UNWANTED PERSON","************","",""
"12/13/2017","03:52","217CR0032050","SUSPICIOUS ACTIVITY","SUSPICIOUS ACTIVITY","1801 FARRAGUT AVE","",""
"12/13/2017","03:56","217CR0032051","SUSPICIOUS ACTIVITY","SUSPICIOUS ACTIVITY","MAIN ST AT LEXINGTON MINE","",""
"12/13/2017","06:20","217CR0032052","T/S","T/S","MONTANA ST AND IRON","",""
"12/13/2017","06:56","217CR0032053","TRAFFIC HAZARD","TRAFFIC HAZARD","1300 BLK HARRISON AVE","",""
 

Subcategories

Thursday the 18th. Affiliate Marketing.
Copyright 2012

©